Time,TemperatureF,DewpointF,PressureIn,WindDirection,WindDirectionDegrees,WindSpeedMPH,WindSpeedGustMPH,Humidity,HourlyPrecipIn,Conditions,Clouds,dailyrainin,SolarRadiationWatts/m^2,SoftwareType,DateUTC
2013-05-19 00:00:00,63.1,31.1,30.00,WNW,300,6.9,6.9,30,0.00,BKN,,0.00,0.0,WeatherDisplay:10.37,2013-05-19 06:00:00,
2013-05-19 00:01:00,63.1,31.1,30.00,WNW,292,6.9,6.9,30,0.00,BKN,,0.00,0.0,WeatherDisplay:10.37,2013-05-19 06:01:00,
2013-05-19 00:03:00,63.1,31.1,30.01,West,270,9.2,9.2,30,0.00,BKN,,0.00,0.0,WeatherDisplay:10.37,2013-05-19 06:03:00,
2013-05-19 00:05:00,63.0,31.0,30.01,WNW,286,10.4,10.4,30,0.00,BKN,,0.00,0.0,WeatherDisplay:10.37,2013-05-19 06:05:00,
2013-05-19 00:06:00,63.0,31.0,30.01,West,281,9.2,9.2,30,0.00,BKN,,0.00,0.0,WeatherDisplay:10.37,2013-05-19 06:06:00,
2013-05-19 00:08:00,63.0,31.0,30.01,WSW,252,12.7,12.7,30,0.00,BKN,,0.00,0.0,WeatherDisplay:10.37,2013-05-19 06:08:00,
2013-05-19 00:09:00,63.0,31.0,30.01,WNW,295,11.0,11.0,30,0.00,BKN,,0.00,0.0,WeatherDisplay:10.37,2013-05-19 06:09:00,
2013-05-19 00:10:00,63.0,31.9,30.01,West,268,13.8,13.8,31,0.00,BKN,,0.00,0.0,WeatherDisplay:10.37,2013-05-19 06:10:00,
2013-05-19 00:13:00,63.0,31.9,30.01,WNW,300,11.5,11.5,31,0.00,BKN,,0.00,0.0,WeatherDisplay:10.37,2013-05-19 06:13:00,
2013-05-19 00:14:00,62.9,31.8,30.01,WNW,288,11.5,11.5,31,0.00,BKN,,0.00,0.0,WeatherDisplay:10.37,2013-05-19 06:14:00,
2013-05-19 00:16:00,62.9,32.6,30.01,WNW,290,16.1,16.1,32,0.00,BKN,,0.00,0.0,WeatherDisplay:10.37,2013-05-19 06:16:00,
2013-05-19 00:17:00,62.8,32.5,30.02,WNW,288,17.3,17.3,32,0.00,BKN,,0.00,0.0,WeatherDisplay:10.37,2013-05-19 06:17:00,
2013-05-19 00:19:00,62.7,32.4,30.02,WNW,295,12.7,12.7,32,0.00,BKN,,0.00,0.0,WeatherDisplay:10.37,2013-05-19 06:19:00,
2013-05-19 00:21:00,62.6,32.3,30.02,NW,312,15.0,15.0,32,0.00,BKN,,0.00,0.0,WeatherDisplay:10.37,2013-05-19 06:21:00,
2013-05-19 00:22:00,62.6,32.3,30.02,West,278,16.1,16.1,32,0.00,BKN,,0.00,0.0,WeatherDisplay:10.37,2013-05-19 06:22:00,
2013-05-19 00:25:00,62.5,32.2,30.02,WNW,297,11.5,11.5,32,0.00,BKN,,0.00,0.0,WeatherDisplay:10.37,2013-05-19 06:25:00,
2013-05-19 00:26:00,62.4,32.1,30.02,West,272,13.8,13.8,32,0.00,BKN,,0.00,0.0,WeatherDisplay:10.37,2013-05-19 06:26:00,
2013-05-19 00:28:00,62.3,32.8,30.02,WSW,251,10.4,10.4,33,0.00,BKN,,0.00,0.0,WeatherDisplay:10.37,2013-05-19 06:28:00,
2013-05-19 00:30:00,62.3,32.8,30.03,WSW,257,9.2,9.2,33,0.00,BKN,,0.00,0.0,WeatherDisplay:10.37,2013-05-19 06:30:00,
2013-05-19 00:31:00,62.3,32.8,30.03,West,274,11.5,11.5,33,0.00,BKN,,0.00,0.0,WeatherDisplay:10.37,2013-05-19 06:31:00,
2013-05-19 00:33:00,62.2,32.7,30.03,WNW,283,10.4,10.4,33,0.00,BKN,,0.00,0.0,WeatherDisplay:10.37,2013-05-19 06:33:00,
2013-05-19 00:35:00,62.2,32.7,30.03,West,263,7.0,7.0,33,0.00,BKN,,0.00,0.0,WeatherDisplay:10.37,2013-05-19 06:35:00,
2013-05-19 00:36:00,62.1,32.6,30.03,West,264,9.2,9.2,33,0.00,BKN,,0.00,0.0,WeatherDisplay:10.37,2013-05-19 06:36:00,
2013-05-19 00:38:00,62.1,32.6,30.02,WNW,295,11.5,11.5,33,0.00,BKN,,0.00,0.0,WeatherDisplay:10.37,2013-05-19 06:38:00,
2013-05-19 00:40:00,62.0,32.5,30.02,WNW,289,10.4,10.4,33,0.00,BKN,,0.00,0.0,WeatherDisplay:10.37,2013-05-19 06:40:00,
2013-05-19 00:41:00,62.0,33.3,30.02,West,278,11.5,11.5,34,0.00,BKN,,0.00,0.0,WeatherDisplay:10.37,2013-05-19 06:41:00,
2013-05-19 00:42:00,61.9,33.2,30.02,West,276,11.5,11.5,34,0.00,BKN,,0.00,0.0,WeatherDisplay:10.37,2013-05-19 06:42:00,
2013-05-19 00:43:00,61.9,33.2,30.02,WNW,299,16.1,16.1,34,0.00,BKN,,0.00,0.0,WeatherDisplay:10.37,2013-05-19 06:43:00,
2013-05-19 00:45:00,61.8,33.1,30.02,WNW,293,11.5,11.5,34,0.00,BKN,,0.00,0.0,WeatherDisplay:10.37,2013-05-19 06:45:00,
2013-05-19 00:46:00,61.8,33.1,30.02,WNW,292,12.7,12.7,34,0.00,BKN,,0.00,0.0,WeatherDisplay:10.37,2013-05-19 06:46:00,
2013-05-19 00:47:00,61.8,33.1,30.02,WNW,295,15.0,15.0,34,0.00,BKN,,0.00,0.0,WeatherDisplay:10.37,2013-05-19 06:47:00,
2013-05-19 00:48:00,61.8,33.1,30.02,WNW,296,13.8,13.8,34,0.00,BKN,,0.00,0.0,WeatherDisplay:10.37,2013-05-19 06:48:00,
2013-05-19 00:49:00,61.8,33.1,30.02,WNW,301,11.5,11.5,34,0.00,BKN,,0.00,0.0,WeatherDisplay:10.37,2013-05-19 06:49:00,
2013-05-19 00:51:00,61.7,33.0,30.02,West,279,15.0,15.0,34,0.00,BKN,,0.00,0.0,WeatherDisplay:10.37,2013-05-19 06:51:00,
2013-05-19 00:52:00,61.7,33.0,30.02,WNW,287,17.3,17.3,34,0.00,BKN,,0.00,0.0,WeatherDisplay:10.37,2013-05-19 06:52:00,
2013-05-19 00:53:00,61.7,33.0,30.02,WNW,295,16.1,16.1,34,0.00,BKN,,0.00,0.0,WeatherDisplay:10.37,2013-05-19 06:53:00,
2013-05-19 00:55:00,61.6,32.9,30.01,West,276,15.0,15.0,34,0.00,BKN,,0.00,0.0,WeatherDisplay:10.37,2013-05-19 06:55:00,
2013-05-19 00:57:00,61.6,32.9,30.02,WSW,247,10.4,10.4,34,0.00,BKN,,0.00,0.0,WeatherDisplay:10.37,2013-05-19 06:57:00,
2013-05-19 00:58:00,61.6,32.9,30.02,WNW,289,16.0,16.0,34,0.00,BKN,,0.00,0.0,WeatherDisplay:10.37,2013-05-19 06:58:00,
2013-05-19 00:59:00,61.6,32.9,30.01,WSW,245,18.4,18.4,34,0.00,BKN,,0.00,0.0,WeatherDisplay:10.37,2013-05-19 06:59:00,
2013-05-19 01:02:00,61.5,32.8,30.01,WNW,286,6.9,6.9,34,0.00,OVC,,0.00,0.0,WeatherDisplay:10.37,2013-05-19 07:02:00,
2013-05-19 01:03:00,61.5,32.8,30.01,West,266,11.5,11.5,34,0.00,OVC,,0.00,0.0,WeatherDisplay:10.37,2013-05-19 07:03:00,
2013-05-19 01:05:00,61.5,33.6,30.01,WSW,249,19.6,19.6,35,0.00,OVC,,0.00,0.0,WeatherDisplay:10.37,2013-05-19 07:05:00,
2013-05-19 01:08:00,61.4,33.5,30.01,WNW,284,13.8,13.8,35,0.00,OVC,,0.00,0.0,WeatherDisplay:10.37,2013-05-19 07:08:00,
2013-05-19 01:09:00,61.4,33.5,30.01,SW,225,18.4,18.4,35,0.00,OVC,,0.00,0.0,WeatherDisplay:10.37,2013-05-19 07:09:00,
2013-05-19 01:10:00,61.3,33.4,30.01,WNW,294,18.4,18.4,35,0.00,OVC,,0.00,0.0,WeatherDisplay:10.37,2013-05-19 07:10:00,
2013-05-19 01:14:00,61.2,33.3,30.01,West,265,11.5,11.5,35,0.00,OVC,,0.00,0.0,WeatherDisplay:10.37,2013-05-19 07:14:00,
2013-05-19 01:15:00,61.2,33.3,30.01,WNW,297,10.4,10.4,35,0.00,OVC,,0.00,0.0,WeatherDisplay:10.37,2013-05-19 07:15:00,
2013-05-19 01:19:00,61.1,33.2,30.01,West,260,10.4,10.4,35,0.00,OVC,,0.00,0.0,WeatherDisplay:10.37,2013-05-19 07:19:00,
2013-05-19 01:20:00,61.0,33.1,30.01,WNW,282,9.2,9.2,35,0.00,OVC,,0.00,0.0,WeatherDisplay:10.37,2013-05-19 07:20:00,
2013-05-19 01:21:00,61.0,33.1,30.01,WNW,286,11.5,11.5,35,0.00,OVC,,0.00,0.0,WeatherDisplay:10.37,2013-05-19 07:21:00,
2013-05-19 01:24:00,61.0,33.8,30.01,West,276,12.7,12.7,36,0.00,OVC,,0.00,0.0,WeatherDisplay:10.37,2013-05-19 07:24:00,
2013-05-19 01:25:00,60.9,33.7,30.01,WNW,282,11.5,11.5,36,0.00,OVC,,0.00,0.0,WeatherDisplay:10.37,2013-05-19 07:25:00,
2013-05-19 01:26:00,60.9,33.7,30.01,WSW,249,11.5,11.5,36,0.00,OVC,,0.00,0.0,WeatherDisplay:10.37,2013-05-19 07:26:00,
2013-05-19 01:27:00,60.9,33.7,30.01,WNW,296,12.7,12.7,36,0.00,OVC,,0.00,0.0,WeatherDisplay:10.37,2013-05-19 07:27:00,
2013-05-19 01:30:00,60.9,33.7,30.01,WSW,240,8.1,8.1,36,0.00,OVC,,0.00,0.0,WeatherDisplay:10.37,2013-05-19 07:30:00,
2013-05-19 01:31:00,60.9,33.7,30.01,WSW,258,8.1,8.1,36,0.00,OVC,,0.00,0.0,WeatherDisplay:10.37,2013-05-19 07:31:00,
2013-05-19 01:32:00,60.9,33.7,30.01,WNW,283,10.4,10.4,36,0.00,OVC,,0.00,0.0,WeatherDisplay:10.37,2013-05-19 07:32:00,
2013-05-19 01:37:00,60.8,33.7,30.01,West,262,11.5,11.5,36,0.00,OVC,,0.00,0.0,WeatherDisplay:10.37,2013-05-19 07:37:00,
2013-05-19 01:38:00,60.8,33.7,30.01,West,266,9.2,9.2,36,0.00,OVC,,0.00,0.0,WeatherDisplay:10.37,2013-05-19 07:38:00,
2013-05-19 01:39:00,60.8,33.7,30.01,West,268,8.1,8.1,36,0.00,OVC,,0.00,0.0,WeatherDisplay:10.37,2013-05-19 07:39:00,
2013-05-19 01:40:00,60.8,33.7,30.01,WSW,242,8.1,8.1,36,0.00,OVC,,0.00,0.0,WeatherDisplay:10.37,2013-05-19 07:40:00,
2013-05-19 01:42:00,60.8,33.7,30.01,West,277,10.0,10.0,36,0.00,OVC,,0.00,0.0,WeatherDisplay:10.37,2013-05-19 07:42:00,
2013-05-19 01:44:00,60.8,33.7,30.01,WNW,290,11.5,11.5,36,0.00,OVC,,0.00,0.0,WeatherDisplay:10.37,2013-05-19 07:44:00,
2013-05-19 01:47:00,60.8,33.7,30.01,WSW,254,5.8,5.8,36,0.00,OVC,,0.00,0.0,WeatherDisplay:10.37,2013-05-19 07:47:00,
2013-05-19 01:48:00,60.7,33.6,30.01,WSW,242,6.9,6.9,36,0.00,OVC,,0.00,0.0,WeatherDisplay:10.37,2013-05-19 07:48:00,
2013-05-19 01:50:00,60.7,33.6,30.01,WSW,243,8.1,8.1,36,0.00,OVC,,0.00,0.0,WeatherDisplay:10.37,2013-05-19 07:50:00,
2013-05-19 01:51:00,60.7,33.6,30.02,West,271,10.4,10.4,36,0.00,OVC,,0.00,0.0,WeatherDisplay:10.37,2013-05-19 07:51:00,
2013-05-19 01:53:00,60.7,34.3,30.02,SW,224,11.5,11.5,37,0.00,OVC,,0.00,0.0,WeatherDisplay:10.37,2013-05-19 07:53:00,
2013-05-19 01:55:00,60.7,34.3,30.02,WNW,293,10.4,10.4,37,0.00,OVC,,0.00,0.0,WeatherDisplay:10.37,2013-05-19 07:55:00,
2013-05-19 01:56:00,60.7,34.3,30.02,SW,225,9.2,9.2,37,0.00,OVC,,0.00,0.0,WeatherDisplay:10.37,2013-05-19 07:56:00,
2013-05-19 01:58:00,60.7,34.3,30.02,WNW,290,11.5,11.5,37,0.00,OVC,,0.00,0.0,WeatherDisplay:10.37,2013-05-19 07:58:00,
2013-05-19 02:00:00,60.7,34.3,30.02,West,263,10.4,10.4,37,0.00,OVC,,0.00,0.0,WeatherDisplay:10.37,2013-05-19 08:00:00,
2013-05-19 02:01:00,60.7,34.3,30.02,WNW,299,9.2,9.2,37,0.00,OVC,,0.00,0.0,WeatherDisplay:10.37,2013-05-19 08:01:00,
2013-05-19 02:02:00,60.8,34.3,30.01,West,261,13.8,13.8,37,0.00,OVC,,0.00,0.0,WeatherDisplay:10.37,2013-05-19 08:02:00,
2013-05-19 02:03:00,60.7,34.3,30.01,West,268,11.5,11.5,37,0.00,OVC,,0.00,0.0,WeatherDisplay:10.37,2013-05-19 08:03:00,
2013-05-19 02:06:00,60.8,34.3,30.01,WNW,285,12.7,12.7,37,0.00,OVC,,0.00,0.0,WeatherDisplay:10.37,2013-05-19 08:06:00,
2013-05-19 02:07:00,60.8,34.3,30.01,WSW,252,12.7,12.7,37,0.00,OVC,,0.00,0.0,WeatherDisplay:10.37,2013-05-19 08:07:00,
2013-05-19 02:08:00,60.8,34.3,30.01,WSW,249,10.4,10.4,37,0.00,OVC,,0.00,0.0,WeatherDisplay:10.37,2013-05-19 08:08:00,
2013-05-19 02:09:00,60.8,34.3,30.01,West,276,11.5,11.5,37,0.00,OVC,,0.00,0.0,WeatherDisplay:10.37,2013-05-19 08:09:00,
2013-05-19 02:12:00,60.8,34.3,30.01,WSW,256,11.5,11.5,37,0.00,BKN,,0.00,0.0,WeatherDisplay:10.37,2013-05-19 08:12:00,
2013-05-19 02:14:00,60.7,34.3,30.01,WSW,241,9.2,9.2,37,0.00,BKN,,0.00,0.0,WeatherDisplay:10.37,2013-05-19 08:14:00,
2013-05-19 02:18:00,60.6,34.2,30.00,WSW,250,6.9,6.9,37,0.00,BKN,,0.00,0.0,WeatherDisplay:10.37,2013-05-19 08:18:00,
2013-05-19 02:19:00,60.6,34.2,30.00,West,273,5.8,5.8,37,0.00,BKN,,0.00,0.0,WeatherDisplay:10.37,2013-05-19 08:19:00,
2013-05-19 02:20:00,60.5,34.1,30.00,WSW,245,11.5,11.5,37,0.00,BKN,,0.00,0.0,WeatherDisplay:10.37,2013-05-19 08:20:00,
2013-05-19 02:22:00,60.5,34.1,30.00,WSW,245,11.5,11.5,37,0.00,BKN,,0.00,0.0,WeatherDisplay:10.37,2013-05-19 08:22:00,
2013-05-19 02:25:00,60.4,34.0,30.01,SW,219,11.5,11.5,37,0.00,BKN,,0.00,0.0,WeatherDisplay:10.37,2013-05-19 08:25:00,
2013-05-19 02:26:00,60.4,34.0,30.00,SW,233,12.7,12.7,37,0.00,BKN,,0.00,0.0,WeatherDisplay:10.37,2013-05-19 08:26:00,
2013-05-19 02:27:00,60.4,34.7,30.00,West,262,11.5,11.5,38,0.00,BKN,,0.00,0.0,WeatherDisplay:10.37,2013-05-19 08:27:00,
2013-05-19 02:31:00,60.3,34.6,30.00,SW,235,12.7,12.7,38,0.00,BKN,,0.00,0.0,WeatherDisplay:10.37,2013-05-19 08:31:00,
2013-05-19 02:32:00,60.3,34.6,30.00,WSW,245,10.4,10.4,38,0.00,BKN,,0.00,0.0,WeatherDisplay:10.37,2013-05-19 08:32:00,
2013-05-19 02:33:00,60.3,34.6,30.00,WSW,237,10.4,10.4,38,0.00,BKN,,0.00,0.0,WeatherDisplay:10.37,2013-05-19 08:33:00,
2013-05-19 02:37:00,60.2,34.5,30.00,SSW,207,8.1,8.1,38,0.00,BKN,,0.00,0.0,WeatherDisplay:10.37,2013-05-19 08:37:00,
2013-05-19 02:38:00,60.2,34.5,30.00,WSW,242,5.8,5.8,38,0.00,BKN,,0.00,0.0,WeatherDisplay:10.37,2013-05-19 08:38:00,
2013-05-19 02:39:00,60.2,34.5,30.00,WSW,245,5.8,5.8,38,0.00,BKN,,0.00,0.0,WeatherDisplay:10.37,2013-05-19 08:39:00,
2013-05-19 02:42:00,60.1,34.4,30.00,WSW,256,9.0,9.0,38,0.00,BKN,,0.00,0.0,WeatherDisplay:10.37,2013-05-19 08:42:00,
2013-05-19 02:44:00,60.1,34.4,30.01,WSW,242,9.2,9.2,38,0.00,BKN,,0.00,0.0,WeatherDisplay:10.37,2013-05-19 08:44:00,
2013-05-19 02:46:00,60.0,34.3,30.00,WSW,239,5.0,5.0,38,0.00,BKN,,0.00,0.0,WeatherDisplay:10.37,2013-05-19 08:46:00,
2013-05-19 02:47:00,60.0,34.3,30.01,WSW,256,5.8,5.8,38,0.00,BKN,,0.00,0.0,WeatherDisplay:10.37,2013-05-19 08:47:00,
2013-05-19 02:48:00,60.0,34.3,30.00,WSW,241,4.6,4.6,38,0.00,BKN,,0.00,0.0,WeatherDisplay:10.37,2013-05-19 08:48:00,
2013-05-19 02:50:00,59.9,34.9,30.01,WSW,237,8.1,8.1,39,0.00,BKN,,0.00,0.0,WeatherDisplay:10.37,2013-05-19 08:50:00,
2013-05-19 02:51:00,59.9,34.9,30.01,WSW,256,5.8,5.8,39,0.00,BKN,,0.00,0.0,WeatherDisplay:10.37,2013-05-19 08:51:00,
2013-05-19 02:54:00,59.8,34.8,30.00,WSW,252,3.5,3.5,39,0.00,BKN,,0.00,0.0,WeatherDisplay:10.37,2013-05-19 08:54:00,
2013-05-19 02:56:00,59.8,34.8,30.01,WSW,258,3.5,3.5,39,0.00,BKN,,0.00,0.0,WeatherDisplay:10.37,2013-05-19 08:56:00,
2013-05-19 02:57:00,59.8,34.8,30.01,WSW,258,2.3,2.3,39,0.00,BKN,,0.00,0.0,WeatherDisplay:10.37,2013-05-19 08:57:00,
2013-05-19 02:59:00,59.7,34.7,30.01,WSW,258,1.1,1.1,39,0.00,BKN,,0.00,0.0,WeatherDisplay:10.37,2013-05-19 08:59:00,
2013-05-19 03:00:00,59.6,34.6,30.01,WSW,258,1.1,1.1,39,0.00,BKN,,0.00,0.0,WeatherDisplay:10.37,2013-05-19 09:00:00,
2013-05-19 03:03:00,59.4,34.4,30.01,WSW,258,1.1,1.1,39,0.00,BKN,,0.00,0.0,WeatherDisplay:10.37,2013-05-19 09:03:00,
2013-05-19 03:05:00,59.3,34.3,30.01,WSW,258,2.3,2.3,39,0.00,BKN,,0.00,0.0,WeatherDisplay:10.37,2013-05-19 09:05:00,
2013-05-19 03:07:00,59.3,34.3,30.01,WSW,258,2.3,2.3,39,0.00,BKN,,0.00,0.0,WeatherDisplay:10.37,2013-05-19 09:07:00,
2013-05-19 03:10:00,59.3,34.3,30.01,WSW,258,2.3,2.3,39,0.00,BKN,,0.00,0.0,WeatherDisplay:10.37,2013-05-19 09:10:00,
2013-05-19 03:11:00,59.3,34.3,30.01,WSW,258,2.3,2.3,39,0.00,OVC,,0.00,0.0,WeatherDisplay:10.37,2013-05-19 09:11:00,
2013-05-19 03:13:00,59.3,34.3,30.01,NE,48,3.5,3.5,39,0.00,OVC,,0.00,0.0,WeatherDisplay:10.37,2013-05-19 09:13:00,
2013-05-19 03:18:00,59.4,34.4,30.01,North,9,2.3,2.3,39,0.00,OVC,,0.00,0.0,WeatherDisplay:10.37,2013-05-19 09:18:00,
2013-05-19 03:21:00,59.4,34.4,30.01,North,4,8.1,8.1,39,0.00,OVC,,0.00,0.0,WeatherDisplay:10.37,2013-05-19 09:21:00,
2013-05-19 03:22:00,59.5,34.5,30.01,NNE,22,3.5,3.8,39,0.00,OVC,,0.00,0.0,WeatherDisplay:10.37,2013-05-19 09:22:00,
2013-05-19 03:24:00,59.5,34.5,30.01,NNE,15,4.0,4.0,39,0.00,OVC,,0.00,0.0,WeatherDisplay:10.37,2013-05-19 09:24:00,
2013-05-19 03:26:00,59.6,34.6,30.01,NNE,25,6.9,6.9,39,0.00,OVC,,0.00,0.0,WeatherDisplay:10.37,2013-05-19 09:26:00,
2013-05-19 03:27:00,59.6,34.6,30.01,NNE,13,8.1,8.1,39,0.00,OVC,,0.00,0.0,WeatherDisplay:10.37,2013-05-19 09:27:00,
2013-05-19 03:29:00,59.7,34.7,30.01,NNE,24,4.6,4.6,39,0.00,OVC,,0.00,0.0,WeatherDisplay:10.37,2013-05-19 09:29:00,
2013-05-19 03:30:00,59.7,34.7,30.01,NNE,24,3.5,3.5,39,0.00,OVC,,0.00,0.0,WeatherDisplay:10.37,2013-05-19 09:30:00,
2013-05-19 03:31:00,59.7,34.7,30.01,NNE,24,3.0,3.0,39,0.00,OVC,,0.00,0.0,WeatherDisplay:10.37,2013-05-19 09:31:00,
2013-05-19 03:36:00,59.6,34.6,30.00,NE,51,4.6,4.6,39,0.00,OVC,,0.00,0.0,WeatherDisplay:10.37,2013-05-19 09:36:00,
2013-05-19 03:38:00,59.5,34.5,30.00,ENE,58,4.6,4.6,39,0.00,OVC,,0.00,0.0,WeatherDisplay:10.37,2013-05-19 09:38:00,
2013-05-19 03:39:00,59.5,34.5,30.00,ENE,75,3.5,3.7,39,0.00,OVC,,0.00,0.0,WeatherDisplay:10.37,2013-05-19 09:39:00,
2013-05-19 03:42:00,59.5,34.5,30.00,East,87,5.8,5.8,39,0.00,OVC,,0.00,0.0,WeatherDisplay:10.37,2013-05-19 09:42:00,
2013-05-19 03:44:00,59.5,34.5,30.00,East,87,3.5,3.5,39,0.00,OVC,,0.00,0.0,WeatherDisplay:10.37,2013-05-19 09:44:00,
2013-05-19 03:45:00,59.5,34.5,30.01,East,87,2.3,2.3,39,0.00,OVC,,0.00,0.0,WeatherDisplay:10.37,2013-05-19 09:45:00,
2013-05-19 03:47:00,59.4,34.4,30.01,East,87,3.5,3.5,39,0.00,OVC,,0.00,0.0,WeatherDisplay:10.37,2013-05-19 09:47:00,
2013-05-19 03:49:00,59.5,34.5,30.01,East,87,3.5,3.5,39,0.00,OVC,,0.00,0.0,WeatherDisplay:10.37,2013-05-19 09:49:00,
2013-05-19 03:51:00,59.5,34.5,30.01,East,87,3.5,3.5,39,0.00,OVC,,0.00,0.0,WeatherDisplay:10.37,2013-05-19 09:51:00,
2013-05-19 03:52:00,59.5,34.5,30.01,East,87,2.3,2.3,39,0.00,OVC,,0.00,0.0,WeatherDisplay:10.37,2013-05-19 09:52:00,
2013-05-19 03:53:00,59.6,34.6,30.01,East,87,4.6,4.6,39,0.00,OVC,,0.00,0.0,WeatherDisplay:10.37,2013-05-19 09:53:00,
2013-05-19 03:55:00,59.6,34.6,30.01,East,87,1.1,0.0,39,0.00,OVC,,0.00,0.0,WeatherDisplay:10.37,2013-05-19 09:55:00,
2013-05-19 03:56:00,59.5,34.5,30.01,East,87,0.0,0.0,39,0.00,OVC,,0.00,0.0,WeatherDisplay:10.37,2013-05-19 09:56:00,
2013-05-19 03:59:00,59.5,34.5,30.01,East,87,2.3,2.3,39,0.00,OVC,,0.00,0.0,WeatherDisplay:10.37,2013-05-19 09:59:00,
2013-05-19 04:01:00,59.4,34.4,30.01,SSW,202,3.5,3.5,39,0.00,OVC,,0.00,0.0,WeatherDisplay:10.37,2013-05-19 10:01:00,
2013-05-19 04:02:00,59.4,34.4,30.01,SSW,202,3.5,3.5,39,0.00,OVC,,0.00,0.0,WeatherDisplay:10.37,2013-05-19 10:02:00,
2013-05-19 04:06:00,59.4,34.4,30.01,SSW,202,3.5,3.5,39,0.00,OVC,,0.00,0.0,WeatherDisplay:10.37,2013-05-19 10:06:00,
2013-05-19 04:07:00,59.4,34.4,30.01,SSW,202,2.3,2.3,39,0.00,OVC,,0.00,0.0,WeatherDisplay:10.37,2013-05-19 10:07:00,
2013-05-19 04:08:00,59.4,34.4,30.01,SSW,202,1.1,1.1,39,0.00,OVC,,0.00,0.0,WeatherDisplay:10.37,2013-05-19 10:08:00,
2013-05-19 04:11:00,59.4,34.4,30.01,SSW,202,1.1,1.1,39,0.00,BKN,,0.00,0.0,WeatherDisplay:10.37,2013-05-19 10:11:00,
2013-05-19 04:14:00,59.3,34.3,30.01,South,184,3.5,3.5,39,0.00,BKN,,0.00,0.0,WeatherDisplay:10.37,2013-05-19 10:14:00,
2013-05-19 04:16:00,59.2,34.9,30.01,South,191,3.5,3.5,40,0.00,BKN,,0.00,0.0,WeatherDisplay:10.37,2013-05-19 10:16:00,
2013-05-19 04:19:00,58.9,34.6,30.01,South,191,1.1,1.1,40,0.00,BKN,,0.00,0.0,WeatherDisplay:10.37,2013-05-19 10:19:00,
2013-05-19 04:20:00,58.9,34.6,30.01,South,191,2.3,2.3,40,0.00,BKN,,0.00,0.0,WeatherDisplay:10.37,2013-05-19 10:20:00,
2013-05-19 04:21:00,58.9,34.6,30.01,SW,223,3.5,3.5,40,0.00,BKN,,0.00,0.0,WeatherDisplay:10.37,2013-05-19 10:21:00,
2013-05-19 04:23:00,58.9,34.6,30.01,WNW,283,6.9,6.9,40,0.00,BKN,,0.00,0.0,WeatherDisplay:10.37,2013-05-19 10:23:00,
2013-05-19 04:25:00,58.9,34.6,30.01,NW,307,3.5,3.5,40,0.00,BKN,,0.00,0.0,WeatherDisplay:10.37,2013-05-19 10:25:00,
2013-05-19 04:26:00,58.9,34.6,30.01,WNW,302,3.5,3.5,40,0.00,BKN,,0.00,0.0,WeatherDisplay:10.37,2013-05-19 10:26:00,
2013-05-19 04:28:00,59.0,34.7,30.01,West,260,3.5,3.8,40,0.00,BKN,,0.00,0.0,WeatherDisplay:10.37,2013-05-19 10:28:00,
2013-05-19 04:31:00,59.1,34.8,30.01,SW,231,3.5,3.5,40,0.00,BKN,,0.00,0.0,WeatherDisplay:10.37,2013-05-19 10:31:00,
2013-05-19 04:32:00,59.0,34.7,30.01,SW,231,2.3,2.3,40,0.00,BKN,,0.00,0.0,WeatherDisplay:10.37,2013-05-19 10:32:00,
2013-05-19 04:37:00,58.9,34.6,30.01,SW,231,2.3,2.3,40,0.00,BKN,,0.00,0.0,WeatherDisplay:10.37,2013-05-19 10:37:00,
2013-05-19 04:38:00,58.9,34.6,30.01,SW,231,2.3,2.3,40,0.00,BKN,,0.00,0.0,WeatherDisplay:10.37,2013-05-19 10:38:00,
2013-05-19 04:40:00,58.9,34.6,30.01,SW,231,3.5,3.5,40,0.00,BKN,,0.00,0.0,WeatherDisplay:10.37,2013-05-19 10:40:00,
2013-05-19 04:45:00,58.9,34.6,30.01,SW,229,3.5,3.5,40,0.00,BKN,,0.00,0.0,WeatherDisplay:10.37,2013-05-19 10:45:00,
2013-05-19 04:48:00,58.9,34.6,30.01,SW,229,3.5,3.5,40,0.00,BKN,,0.00,0.0,WeatherDisplay:10.37,2013-05-19 10:48:00,
2013-05-19 04:49:00,58.9,34.6,30.01,SW,229,3.5,3.5,40,0.00,BKN,,0.00,0.0,WeatherDisplay:10.37,2013-05-19 10:49:00,
2013-05-19 04:50:00,58.9,34.6,30.01,SW,229,2.3,2.3,40,0.00,BKN,,0.00,0.0,WeatherDisplay:10.37,2013-05-19 10:50:00,
2013-05-19 04:51:00,58.9,34.6,30.01,SW,229,1.1,1.1,40,0.00,BKN,,0.00,0.0,WeatherDisplay:10.37,2013-05-19 10:51:00,
2013-05-19 04:53:00,58.8,35.1,30.01,SW,229,0.0,0.0,41,0.00,BKN,,0.00,0.0,WeatherDisplay:10.37,2013-05-19 10:53:00,
2013-05-19 04:54:00,58.8,34.5,30.01,SW,229,0.0,0.0,40,0.00,BKN,,0.00,0.0,WeatherDisplay:10.37,2013-05-19 10:54:00,
2013-05-19 04:55:00,58.7,35.0,30.01,SW,229,0.0,0.0,41,0.00,BKN,,0.00,0.0,WeatherDisplay:10.37,2013-05-19 10:55:00,
2013-05-19 04:56:00,58.6,35.0,30.01,SW,229,0.0,0.0,41,0.00,BKN,,0.00,0.0,WeatherDisplay:10.37,2013-05-19 10:56:00,
2013-05-19 05:00:00,58.5,34.9,30.01,SW,229,2.3,2.3,41,0.00,BKN,,0.00,0.0,WeatherDisplay:10.37,2013-05-19 11:00:00,
2013-05-19 05:01:00,58.4,34.8,30.01,SW,229,2.3,2.3,41,0.00,BKN,,0.00,0.0,WeatherDisplay:10.37,2013-05-19 11:01:00,
2013-05-19 05:03:00,58.4,34.8,30.01,SW,229,1.1,1.1,41,0.00,BKN,,0.00,0.0,WeatherDisplay:10.37,2013-05-19 11:03:00,
2013-05-19 05:04:00,58.4,34.8,30.01,SW,229,1.1,0.0,41,0.00,BKN,,0.00,0.0,WeatherDisplay:10.37,2013-05-19 11:04:00,
2013-05-19 05:05:00,58.3,34.7,30.01,SW,229,0.0,0.0,41,0.00,BKN,,0.00,0.0,WeatherDisplay:10.37,2013-05-19 11:05:00,
2013-05-19 05:08:00,58.2,35.2,30.01,SW,229,3.0,3.0,42,0.00,BKN,,0.00,0.0,WeatherDisplay:10.37,2013-05-19 11:08:00,
2013-05-19 05:09:00,58.1,35.1,30.01,SW,229,3.5,3.5,42,0.00,BKN,,0.00,0.0,WeatherDisplay:10.37,2013-05-19 11:09:00,
2013-05-19 05:12:00,58.1,35.1,30.01,SW,229,3.5,3.5,42,0.00,BKN,,0.00,0.0,WeatherDisplay:10.37,2013-05-19 11:12:00,
2013-05-19 05:13:00,58.1,35.1,30.01,SW,229,3.5,3.5,42,0.00,BKN,,0.00,0.0,WeatherDisplay:10.37,2013-05-19 11:13:00,
2013-05-19 05:15:00,58.2,34.6,30.01,SW,229,3.5,3.5,41,0.00,BKN,,0.00,0.0,WeatherDisplay:10.37,2013-05-19 11:15:00,
2013-05-19 05:16:00,58.3,34.7,30.01,SW,230,2.3,2.3,41,0.00,BKN,,0.00,0.0,WeatherDisplay:10.37,2013-05-19 11:16:00,
2013-05-19 05:17:00,58.4,34.8,30.01,SW,229,2.3,2.3,41,0.00,BKN,,0.00,0.0,WeatherDisplay:10.37,2013-05-19 11:17:00,
2013-05-19 05:20:00,58.6,34.3,30.01,WSW,238,4.6,4.6,40,0.00,BKN,,0.00,0.0,WeatherDisplay:10.37,2013-05-19 11:20:00,
2013-05-19 05:21:00,58.6,34.3,30.01,WSW,237,4.6,4.6,40,0.00,BKN,,0.00,0.0,WeatherDisplay:10.37,2013-05-19 11:21:00,
2013-05-19 05:24:00,58.7,34.4,30.01,WSW,258,3.5,3.5,40,0.00,BKN,,0.00,0.0,WeatherDisplay:10.37,2013-05-19 11:24:00,
2013-05-19 05:26:00,58.7,34.4,30.01,WSW,241,3.5,3.5,40,0.00,BKN,,0.00,0.0,WeatherDisplay:10.37,2013-05-19 11:26:00,
2013-05-19 05:28:00,58.7,34.4,30.01,SW,233,4.6,4.6,40,0.00,BKN,,0.00,0.0,WeatherDisplay:10.37,2013-05-19 11:28:00,
2013-05-19 05:29:00,58.7,34.4,30.01,SW,216,5.8,5.8,40,0.00,BKN,,0.00,0.0,WeatherDisplay:10.37,2013-05-19 11:29:00,
2013-05-19 05:31:00,58.7,34.4,30.01,SW,228,4.6,4.6,40,0.00,BKN,,0.00,0.0,WeatherDisplay:10.37,2013-05-19 11:31:00,
2013-05-19 05:34:00,58.7,34.4,30.01,WSW,239,6.9,6.9,40,0.00,BKN,,0.00,0.0,WeatherDisplay:10.37,2013-05-19 11:34:00,
2013-05-19 05:35:00,58.7,34.4,30.01,WSW,246,4.6,4.6,40,0.00,BKN,,0.00,0.0,WeatherDisplay:10.37,2013-05-19 11:35:00,
2013-05-19 05:36:00,58.7,34.4,30.01,WSW,246,4.6,4.6,40,0.00,BKN,,0.00,0.0,WeatherDisplay:10.37,2013-05-19 11:36:00,
2013-05-19 05:37:00,58.7,34.4,30.01,WSW,246,3.5,3.5,40,0.00,BKN,,0.00,0.0,WeatherDisplay:10.37,2013-05-19 11:37:00,
2013-05-19 05:39:00,58.6,34.3,30.01,West,259,2.3,2.3,40,0.00,BKN,,0.00,0.0,WeatherDisplay:10.37,2013-05-19 11:39:00,
2013-05-19 05:42:00,58.6,35.0,30.01,West,265,3.5,3.5,41,0.00,BKN,,0.00,0.0,WeatherDisplay:10.37,2013-05-19 11:42:00,
2013-05-19 05:44:00,58.5,34.2,30.01,West,268,5.0,5.0,40,0.00,BKN,,0.00,0.0,WeatherDisplay:10.37,2013-05-19 11:44:00,
2013-05-19 05:45:00,58.5,34.2,30.02,West,270,4.6,4.6,40,0.00,BKN,,0.00,0.0,WeatherDisplay:10.37,2013-05-19 11:45:00,
2013-05-19 05:46:00,58.6,34.3,30.01,West,270,4.6,4.6,40,0.00,BKN,,0.00,0.0,WeatherDisplay:10.37,2013-05-19 11:46:00,
2013-05-19 05:47:00,58.5,34.2,30.02,West,279,4.0,4.0,40,0.00,BKN,,0.00,0.0,WeatherDisplay:10.37,2013-05-19 11:47:00,
2013-05-19 05:51:00,58.3,34.7,30.02,WNW,287,5.0,5.0,41,0.00,BKN,,0.00,0.0,WeatherDisplay:10.37,2013-05-19 11:51:00,
2013-05-19 05:52:00,58.2,34.6,30.02,WNW,287,4.6,4.6,41,0.00,BKN,,0.00,0.0,WeatherDisplay:10.37,2013-05-19 11:52:00,
2013-05-19 05:54:00,58.0,34.4,30.02,WNW,298,4.6,4.6,41,0.00,BKN,,0.00,0.0,WeatherDisplay:10.37,2013-05-19 11:54:00,
2013-05-19 05:56:00,57.8,34.8,30.02,NNE,14,10.0,10.0,42,0.00,BKN,,0.00,0.0,WeatherDisplay:10.37,2013-05-19 11:56:00,
2013-05-19 05:57:00,57.7,34.7,30.02,NW,306,10.4,10.4,42,0.00,BKN,,0.00,0.0,WeatherDisplay:10.37,2013-05-19 11:57:00,
2013-05-19 05:58:00,57.6,34.7,30.02,NW,306,10.4,10.4,42,0.00,BKN,,0.00,0.0,WeatherDisplay:10.37,2013-05-19 11:58:00,
2013-05-19 06:01:00,56.9,34.6,30.03,NW,314,10.4,10.4,43,0.00,BKN,,0.00,5.0,WeatherDisplay:10.37,2013-05-19 12:01:00,
2013-05-19 06:02:00,56.7,34.4,30.03,NW,307,11.5,11.5,43,0.00,BKN,,0.00,5.0,WeatherDisplay:10.37,2013-05-19 12:02:00,
2013-05-19 06:03:00,56.6,34.3,30.02,WNW,293,9.2,9.2,43,0.00,BKN,,0.00,7.0,WeatherDisplay:10.37,2013-05-19 12:03:00,
2013-05-19 06:07:00,56.2,34.6,30.03,WNW,291,11.5,11.5,44,0.00,BKN,,0.00,11.0,WeatherDisplay:10.37,2013-05-19 12:07:00,
2013-05-19 06:08:00,56.1,34.5,30.03,WNW,289,16.1,16.1,44,0.00,BKN,,0.00,11.0,WeatherDisplay:10.37,2013-05-19 12:08:00,
2013-05-19 06:09:00,56.0,34.4,30.03,NW,304,13.8,13.8,44,0.00,BKN,,0.00,12.0,WeatherDisplay:10.37,2013-05-19 12:09:00,
2013-05-19 06:14:00,55.9,34.8,30.02,WNW,301,11.5,11.5,45,0.00,SCT,,0.00,16.0,WeatherDisplay:10.37,2013-05-19 12:14:00,
2013-05-19 06:15:00,55.9,34.8,30.02,NW,320,11.5,11.5,45,0.00,SCT,,0.00,18.0,WeatherDisplay:10.37,2013-05-19 12:15:00,
2013-05-19 06:16:00,55.9,34.8,30.02,NW,310,13.0,13.0,45,0.00,SCT,,0.00,18.0,WeatherDisplay:10.37,2013-05-19 12:16:00,
2013-05-19 06:18:00,55.8,34.8,30.02,NW,308,11.5,11.5,45,0.00,SCT,,0.00,18.0,WeatherDisplay:10.37,2013-05-19 12:18:00,
2013-05-19 06:21:00,55.9,34.8,30.03,NW,305,10.4,10.4,45,0.00,SCT,,0.00,19.0,WeatherDisplay:10.37,2013-05-19 12:21:00,
2013-05-19 06:23:00,55.8,34.8,30.03,WNW,282,10.4,10.4,45,0.00,SCT,,0.00,21.0,WeatherDisplay:10.37,2013-05-19 12:23:00,
2013-05-19 06:25:00,55.8,34.8,30.03,WNW,293,11.5,11.5,45,0.00,SCT,,0.00,23.0,WeatherDisplay:10.37,2013-05-19 12:25:00,
2013-05-19 06:26:00,55.8,34.8,30.03,West,281,9.2,9.2,45,0.00,SCT,,0.00,25.0,WeatherDisplay:10.37,2013-05-19 12:26:00,
2013-05-19 06:27:00,55.8,34.8,30.03,NW,314,8.1,8.1,45,0.00,SCT,,0.00,25.0,WeatherDisplay:10.37,2013-05-19 12:27:00,
2013-05-19 06:29:00,55.8,35.3,30.03,WNW,285,9.2,9.2,46,0.00,SCT,,0.00,26.0,WeatherDisplay:10.37,2013-05-19 12:29:00,
2013-05-19 06:32:00,55.7,35.2,30.03,WNW,290,8.1,8.1,46,0.00,SCT,,0.00,25.0,WeatherDisplay:10.37,2013-05-19 12:32:00,
2013-05-19 06:33:00,55.7,35.2,30.03,WNW,295,11.5,11.5,46,0.00,SCT,,0.00,25.0,WeatherDisplay:10.37,2013-05-19 12:33:00,
2013-05-19 06:34:00,55.7,35.2,30.03,WNW,299,6.0,6.0,46,0.00,SCT,,0.00,25.0,WeatherDisplay:10.37,2013-05-19 12:34:00,
2013-05-19 06:37:00,55.6,35.1,30.03,WNW,286,9.2,9.2,46,0.00,SCT,,0.00,26.0,WeatherDisplay:10.37,2013-05-19 12:37:00,
2013-05-19 06:39:00,55.6,35.1,30.03,West,278,8.1,8.1,46,0.00,SCT,,0.00,28.0,WeatherDisplay:10.37,2013-05-19 12:39:00,
2013-05-19 06:41:00,55.6,35.1,30.03,WNW,290,6.9,6.9,46,0.00,SCT,,0.00,30.0,WeatherDisplay:10.37,2013-05-19 12:41:00,
2013-05-19 06:44:00,55.6,35.1,30.03,WNW,299,8.0,8.0,46,0.00,SCT,,0.00,35.0,WeatherDisplay:10.37,2013-05-19 12:44:00,
2013-05-19 06:45:00,55.6,35.1,30.03,WNW,291,11.5,11.5,46,0.00,SCT,,0.00,35.0,WeatherDisplay:10.37,2013-05-19 12:45:00,
2013-05-19 06:46:00,55.6,35.1,30.03,WNW,302,11.5,11.5,46,0.00,SCT,,0.00,39.0,WeatherDisplay:10.37,2013-05-19 12:46:00,
2013-05-19 06:50:00,55.8,35.3,30.03,WSW,258,8.1,8.1,46,0.00,SCT,,0.00,44.0,WeatherDisplay:10.37,2013-05-19 12:50:00,
2013-05-19 06:51:00,55.9,35.4,30.03,West,268,6.9,6.9,46,0.00,SCT,,0.00,46.0,WeatherDisplay:10.37,2013-05-19 12:51:00,
2013-05-19 06:52:00,55.9,35.4,30.03,WNW,286,7.0,7.0,46,0.00,SCT,,0.00,47.0,WeatherDisplay:10.37,2013-05-19 12:52:00,
2013-05-19 06:53:00,56.0,35.5,30.03,West,272,8.1,8.1,46,0.00,SCT,,0.00,47.0,WeatherDisplay:10.37,2013-05-19 12:53:00,
2013-05-19 06:56:00,56.2,35.7,30.03,West,281,5.0,5.0,46,0.00,SCT,,0.00,54.0,WeatherDisplay:10.37,2013-05-19 12:56:00,
2013-05-19 06:57:00,56.3,35.8,30.03,WNW,285,5.8,5.8,46,0.00,SCT,,0.00,49.0,WeatherDisplay:10.37,2013-05-19 12:57:00,
2013-05-19 06:58:00,56.3,35.8,30.03,WNW,285,4.6,4.6,46,0.00,SCT,,0.00,47.0,WeatherDisplay:10.37,2013-05-19 12:58:00,
2013-05-19 06:59:00,56.4,35.9,30.03,West,272,4.6,4.6,46,0.00,SCT,,0.00,62.0,WeatherDisplay:10.37,2013-05-19 12:59:00,
2013-05-19 07:00:00,56.4,35.9,30.03,West,272,4.6,4.6,46,0.00,SCT,,0.00,65.0,WeatherDisplay:10.37,2013-05-19 13:00:00,
2013-05-19 07:02:00,56.7,36.1,30.03,West,270,3.5,3.5,46,0.00,SCT,,0.00,74.0,WeatherDisplay:10.37,2013-05-19 13:02:00,
2013-05-19 07:04:00,56.9,35.8,30.03,West,276,6.9,6.9,45,0.00,SCT,,0.00,79.0,WeatherDisplay:10.37,2013-05-19 13:04:00,
2013-05-19 07:07:00,57.1,35.9,30.03,WSW,248,5.8,5.8,45,0.00,SCT,,0.00,88.0,WeatherDisplay:10.37,2013-05-19 13:07:00,
2013-05-19 07:08:00,57.1,35.9,30.03,SW,229,4.6,4.6,45,0.00,SCT,,0.00,93.0,WeatherDisplay:10.37,2013-05-19 13:08:00,
2013-05-19 07:11:00,57.1,35.9,30.03,West,259,3.0,3.0,45,0.00,BKN,,0.00,102.0,WeatherDisplay:10.37,2013-05-19 13:11:00,
2013-05-19 07:13:00,56.9,35.8,30.04,SSW,193,3.5,3.5,45,0.00,BKN,,0.00,109.0,WeatherDisplay:10.37,2013-05-19 13:13:00,
2013-05-19 07:14:00,56.9,35.8,30.03,SSW,193,3.5,3.5,45,0.00,BKN,,0.00,116.0,WeatherDisplay:10.37,2013-05-19 13:14:00,
2013-05-19 07:15:00,56.9,36.3,30.04,South,183,3.5,3.5,46,0.00,BKN,,0.00,120.0,WeatherDisplay:10.37,2013-05-19 13:15:00,
2013-05-19 07:18:00,57.1,36.5,30.04,East,97,3.5,3.5,46,0.00,BKN,,0.00,127.0,WeatherDisplay:10.37,2013-05-19 13:18:00,
2013-05-19 07:20:00,57.0,36.4,30.04,ESE,115,3.5,3.5,46,0.00,BKN,,0.00,139.0,WeatherDisplay:10.37,2013-05-19 13:20:00,
2013-05-19 07:21:00,56.9,36.3,30.04,ESE,106,3.5,3.5,46,0.00,BKN,,0.00,148.0,WeatherDisplay:10.37,2013-05-19 13:21:00,
2013-05-19 07:23:00,56.9,36.3,30.04,ENE,67,4.6,4.6,46,0.00,BKN,,0.00,153.0,WeatherDisplay:10.37,2013-05-19 13:23:00,
2013-05-19 07:26:00,57.5,36.3,30.04,ENE,75,5.8,5.8,45,0.00,BKN,,0.00,172.0,WeatherDisplay:10.37,2013-05-19 13:26:00,
2013-05-19 07:27:00,57.6,36.4,30.04,East,97,4.6,4.6,45,0.00,BKN,,0.00,174.0,WeatherDisplay:10.37,2013-05-19 13:27:00,
2013-05-19 07:30:00,57.7,36.5,30.04,ENE,74,4.6,4.6,45,0.00,BKN,,0.00,185.0,WeatherDisplay:10.37,2013-05-19 13:30:00,
2013-05-19 07:32:00,57.9,36.7,30.04,East,82,4.6,4.6,45,0.00,BKN,,0.00,192.0,WeatherDisplay:10.37,2013-05-19 13:32:00,
2013-05-19 07:36:00,58.2,36.4,30.04,ENE,70,6.9,6.9,44,0.00,BKN,,0.00,202.0,WeatherDisplay:10.37,2013-05-19 13:36:00,
2013-05-19 07:37:00,58.3,36.5,30.04,ENE,78,4.6,4.6,44,0.00,BKN,,0.00,209.0,WeatherDisplay:10.37,2013-05-19 13:37:00,
2013-05-19 07:38:00,58.4,36.6,30.04,East,80,4.6,4.6,44,0.00,BKN,,0.00,213.0,WeatherDisplay:10.37,2013-05-19 13:38:00,
2013-05-19 07:41:00,58.7,36.2,30.04,East,85,4.6,4.6,43,0.00,BKN,,0.00,221.0,WeatherDisplay:10.37,2013-05-19 13:41:00,
2013-05-19 07:43:00,58.9,36.4,30.04,East,85,6.9,6.9,43,0.00,BKN,,0.00,234.0,WeatherDisplay:10.37,2013-05-19 13:43:00,
2013-05-19 07:44:00,59.1,36.6,30.03,East,101,5.0,5.0,43,0.00,BKN,,0.00,236.0,WeatherDisplay:10.37,2013-05-19 13:44:00,
2013-05-19 07:45:00,59.2,36.1,30.03,East,99,5.8,5.8,42,0.00,BKN,,0.00,239.0,WeatherDisplay:10.37,2013-05-19 13:45:00,
2013-05-19 07:48:00,58.9,35.8,30.03,ESE,113,9.2,9.2,42,0.00,BKN,,0.00,248.0,WeatherDisplay:10.37,2013-05-19 13:48:00,
2013-05-19 07:51:00,58.6,35.6,30.03,ESE,113,7.0,7.0,42,0.00,BKN,,0.00,262.0,WeatherDisplay:10.37,2013-05-19 13:51:00,
2013-05-19 07:52:00,58.5,35.5,30.03,SE,125,9.2,9.2,42,0.00,BKN,,0.00,264.0,WeatherDisplay:10.37,2013-05-19 13:52:00,
2013-05-19 07:53:00,58.6,36.2,30.03,SE,129,6.9,6.9,43,0.00,BKN,,0.00,267.0,WeatherDisplay:10.37,2013-05-19 13:53:00,
2013-05-19 07:54:00,58.7,36.2,30.03,SE,129,5.8,5.8,43,0.00,BKN,,0.00,271.0,WeatherDisplay:10.37,2013-05-19 13:54:00,
2013-05-19 07:58:00,59.1,36.0,30.03,SSE,154,4.6,4.6,42,0.00,BKN,,0.00,285.0,WeatherDisplay:10.37,2013-05-19 13:58:00,
2013-05-19 07:59:00,59.1,36.0,30.04,SSE,154,4.6,4.6,42,0.00,BKN,,0.00,287.0,WeatherDisplay:10.37,2013-05-19 13:59:00,
2013-05-19 08:00:00,59.2,36.1,30.03,SE,142,3.5,3.5,42,0.00,BKN,,0.00,292.0,WeatherDisplay:10.37,2013-05-19 14:00:00,
2013-05-19 08:05:00,59.8,35.4,30.04,SE,127,3.5,3.5,40,0.00,BKN,,0.00,306.0,WeatherDisplay:10.37,2013-05-19 14:05:00,
2013-05-19 08:06:00,59.9,35.5,30.03,SE,127,3.5,3.5,40,0.00,BKN,,0.00,313.0,WeatherDisplay:10.37,2013-05-19 14:06:00,
2013-05-19 08:07:00,60.2,35.8,30.04,SE,127,2.3,2.3,40,0.00,BKN,,0.00,316.0,WeatherDisplay:10.37,2013-05-19 14:07:00,
2013-05-19 08:10:00,61.5,35.6,30.04,SE,127,1.1,1.4,38,0.00,BKN,,0.00,327.0,WeatherDisplay:10.37,2013-05-19 14:10:00,
2013-05-19 08:11:00,61.5,36.3,30.04,SE,128,3.5,3.5,39,0.00,SCT,,0.00,330.0,WeatherDisplay:10.37,2013-05-19 14:11:00,
2013-05-19 08:12:00,61.3,36.1,30.04,SE,128,3.5,3.5,39,0.00,SCT,,0.00,336.0,WeatherDisplay:10.37,2013-05-19 14:12:00,
2013-05-19 08:13:00,61.0,35.8,30.03,SE,128,2.3,2.3,39,0.00,SCT,,0.00,339.0,WeatherDisplay:10.37,2013-05-19 14:13:00,
2013-05-19 08:17:00,61.1,35.9,30.03,SE,128,1.1,1.1,39,0.00,SCT,,0.00,350.0,WeatherDisplay:10.37,2013-05-19 14:17:00,
2013-05-19 08:18:00,61.2,35.4,30.03,SE,128,1.1,1.1,38,0.00,SCT,,0.00,359.0,WeatherDisplay:10.37,2013-05-19 14:18:00,
2013-05-19 08:19:00,61.4,36.2,30.03,SE,128,1.1,1.1,39,0.00,SCT,,0.00,362.0,WeatherDisplay:10.37,2013-05-19 14:19:00,
2013-05-19 08:20:00,61.8,36.6,30.04,SE,128,1.1,1.1,39,0.00,SCT,,0.00,367.0,WeatherDisplay:10.37,2013-05-19 14:20:00,
2013-05-19 08:22:00,62.6,35.9,30.04,SE,128,2.3,2.3,37,0.00,SCT,,0.00,381.0,WeatherDisplay:10.37,2013-05-19 14:22:00,
2013-05-19 08:24:00,62.2,34.9,30.04,SE,141,3.5,3.8,36,0.00,SCT,,0.00,403.0,WeatherDisplay:10.37,2013-05-19 14:24:00,
2013-05-19 08:25:00,62.1,35.5,30.04,SE,141,4.6,4.6,37,0.00,SCT,,0.00,404.0,WeatherDisplay:10.37,2013-05-19 14:25:00,
2013-05-19 08:26:00,62.5,35.9,30.04,SE,141,3.5,0.0,37,0.00,SCT,,0.00,408.0,WeatherDisplay:10.37,2013-05-19 14:26:00,
2013-05-19 08:29:00,63.6,35.4,30.04,SSE,153,4.0,4.0,35,0.00,SCT,,0.00,417.0,WeatherDisplay:10.37,2013-05-19 14:29:00,
2013-05-19 08:31:00,62.8,34.7,30.04,SSE,153,3.5,3.5,35,0.00,SCT,,0.00,436.0,WeatherDisplay:10.37,2013-05-19 14:31:00,
2013-05-19 08:32:00,62.7,35.3,30.04,SSE,153,3.5,3.5,36,0.00,SCT,,0.00,443.0,WeatherDisplay:10.37,2013-05-19 14:32:00,
2013-05-19 08:34:00,62.9,34.8,30.04,West,276,6.0,6.0,35,0.00,SCT,,0.00,443.0,WeatherDisplay:10.37,2013-05-19 14:34:00,
2013-05-19 08:36:00,63.4,34.5,30.04,SW,224,8.1,8.1,34,0.00,SCT,,0.00,387.0,WeatherDisplay:10.37,2013-05-19 14:36:00,
2013-05-19 08:39:00,63.6,33.9,30.04,SSW,206,8.1,8.1,33,0.00,SCT,,0.00,367.0,WeatherDisplay:10.37,2013-05-19 14:39:00,
2013-05-19 08:41:00,63.8,34.1,30.04,West,269,5.8,5.8,33,0.00,SCT,,0.00,422.0,WeatherDisplay:10.37,2013-05-19 14:41:00,
2013-05-19 08:43:00,64.5,34.0,30.04,WNW,291,4.6,4.6,32,0.00,SCT,,0.00,427.0,WeatherDisplay:10.37,2013-05-19 14:43:00,
2013-05-19 08:45:00,64.7,33.3,30.04,SW,220,3.5,3.6,31,0.00,SCT,,0.00,448.0,WeatherDisplay:10.37,2013-05-19 14:45:00,
2013-05-19 08:46:00,64.7,33.3,30.04,WSW,247,5.8,6.1,31,0.00,SCT,,0.00,431.0,WeatherDisplay:10.37,2013-05-19 14:46:00,
2013-05-19 08:50:00,65.2,33.8,30.05,WSW,241,9.2,9.2,31,0.00,SCT,,0.00,462.0,WeatherDisplay:10.37,2013-05-19 14:50:00,
2013-05-19 08:51:00,65.4,34.0,30.05,WSW,245,10.4,10.4,31,0.00,SCT,,0.00,475.0,WeatherDisplay:10.37,2013-05-19 14:51:00,
2013-05-19 08:53:00,65.6,33.3,30.05,WSW,254,8.1,8.1,30,0.00,SCT,,0.00,476.0,WeatherDisplay:10.37,2013-05-19 14:53:00,
2013-05-19 08:55:00,65.8,33.5,30.05,WSW,249,9.2,9.2,30,0.00,SCT,,0.00,485.0,WeatherDisplay:10.37,2013-05-19 14:55:00,
2013-05-19 08:56:00,65.8,33.5,30.05,West,263,9.2,9.2,30,0.00,SCT,,0.00,473.0,WeatherDisplay:10.37,2013-05-19 14:56:00,
2013-05-19 08:58:00,65.8,33.5,30.05,West,274,6.9,6.9,30,0.00,SCT,,0.00,492.0,WeatherDisplay:10.37,2013-05-19 14:58:00,
2013-05-19 09:00:00,65.8,33.5,30.05,WNW,292,9.2,9.2,30,0.00,SCT,,0.00,497.0,WeatherDisplay:10.37,2013-05-19 15:00:00,
2013-05-19 09:03:00,66.0,33.7,30.05,WNW,286,4.6,4.6,30,0.00,SCT,,0.00,504.0,WeatherDisplay:10.37,2013-05-19 15:03:00,
2013-05-19 09:04:00,66.0,33.7,30.05,WNW,295,4.6,4.6,30,0.00,SCT,,0.00,508.0,WeatherDisplay:10.37,2013-05-19 15:04:00,
2013-05-19 09:05:00,65.9,33.6,30.05,NW,312,6.9,6.9,30,0.00,SCT,,0.00,513.0,WeatherDisplay:10.37,2013-05-19 15:05:00,
2013-05-19 09:06:00,66.0,33.7,30.05,West,270,8.1,8.1,30,0.00,SCT,,0.00,517.0,WeatherDisplay:10.37,2013-05-19 15:06:00,
2013-05-19 09:08:00,66.2,33.8,30.05,NW,310,4.6,4.6,30,0.00,SCT,,0.00,522.0,WeatherDisplay:10.37,2013-05-19 15:08:00,
2013-05-19 09:10:00,66.7,33.4,30.04,West,264,6.9,6.9,29,0.00,SCT,,0.00,527.0,WeatherDisplay:10.37,2013-05-19 15:10:00,
2013-05-19 09:11:00,66.7,33.4,30.04,SSW,206,6.9,6.9,29,0.00,SCT,,0.00,540.0,WeatherDisplay:10.37,2013-05-19 15:11:00,
2013-05-19 09:13:00,65.8,33.5,30.04,West,276,6.9,6.9,30,0.00,SCT,,0.00,548.0,WeatherDisplay:10.37,2013-05-19 15:13:00,
2013-05-19 09:15:00,65.0,32.8,30.05,SW,215,6.9,6.9,30,0.00,SCT,,0.00,559.0,WeatherDisplay:10.37,2013-05-19 15:15:00,
2013-05-19 09:18:00,64.1,32.8,30.04,SSW,213,3.5,3.5,31,0.00,SCT,,0.00,598.0,WeatherDisplay:10.37,2013-05-19 15:18:00,
2013-05-19 09:21:00,65.4,34.0,30.04,NW,320,6.0,6.0,31,0.00,SCT,,0.00,635.0,WeatherDisplay:10.37,2013-05-19 15:21:00,
2013-05-19 09:23:00,65.9,33.6,30.04,NW,310,5.8,5.8,30,0.00,SCT,,0.00,666.0,WeatherDisplay:10.37,2013-05-19 15:23:00,
2013-05-19 09:24:00,66.0,33.7,30.04,West,266,6.9,6.9,30,0.00,SCT,,0.00,687.0,WeatherDisplay:10.37,2013-05-19 15:24:00,
2013-05-19 09:25:00,66.3,33.9,30.04,WSW,253,8.1,8.1,30,0.00,SCT,,0.00,705.0,WeatherDisplay:10.37,2013-05-19 15:25:00,
2013-05-19 09:26:00,66.7,34.3,30.04,WSW,245,6.9,6.9,30,0.00,SCT,,0.00,722.0,WeatherDisplay:10.37,2013-05-19 15:26:00,
2013-05-19 09:29:00,67.8,33.5,30.04,WSW,243,2.3,2.5,28,0.00,SCT,,0.00,675.0,WeatherDisplay:10.37,2013-05-19 15:29:00,
2013-05-19 09:30:00,67.6,33.3,30.04,WSW,237,5.8,5.8,28,0.00,SCT,,0.00,693.0,WeatherDisplay:10.37,2013-05-19 15:30:00,
2013-05-19 09:32:00,67.4,34.0,30.04,West,264,3.5,3.5,29,0.00,SCT,,0.00,664.0,WeatherDisplay:10.37,2013-05-19 15:32:00,
2013-05-19 09:33:00,67.5,34.1,30.04,WNW,295,3.5,3.7,29,0.00,SCT,,0.00,664.0,WeatherDisplay:10.37,2013-05-19 15:33:00,
2013-05-19 09:34:00,67.4,33.1,30.04,WNW,295,4.6,4.6,28,0.00,SCT,,0.00,297.0,WeatherDisplay:10.37,2013-05-19 15:34:00,
2013-05-19 09:35:00,67.4,33.1,30.04,WNW,295,4.6,4.6,28,0.00,SCT,,0.00,297.0,WeatherDisplay:10.37,2013-05-19 15:35:00,
2013-05-19 09:39:00,67.6,32.4,30.04,WNW,283,10.4,10.4,27,0.00,SCT,,0.00,315.0,WeatherDisplay:10.37,2013-05-19 15:39:00,
2013-05-19 09:40:00,67.7,32.5,30.04,West,278,15.0,15.0,27,0.00,SCT,,0.00,279.0,WeatherDisplay:10.37,2013-05-19 15:40:00,
2013-05-19 09:42:00,67.6,32.4,30.03,WSW,253,9.2,9.2,27,0.00,SCT,,0.00,309.0,WeatherDisplay:10.37,2013-05-19 15:42:00,
2013-05-19 09:43:00,67.6,32.4,30.03,West,265,6.0,6.1,27,0.00,SCT,,0.00,309.0,WeatherDisplay:10.37,2013-05-19 15:43:00,
2013-05-19 09:44:00,67.8,32.6,30.03,WSW,249,9.2,9.2,27,0.00,SCT,,0.00,309.0,WeatherDisplay:10.37,2013-05-19 15:44:00,
2013-05-19 09:47:00,67.7,32.5,30.03,WSW,247,6.9,6.9,27,0.00,SCT,,0.00,306.0,WeatherDisplay:10.37,2013-05-19 15:47:00,
2013-05-19 09:49:00,67.4,33.1,30.03,WSW,244,7.0,7.0,28,0.00,SCT,,0.00,279.0,WeatherDisplay:10.37,2013-05-19 15:49:00,
2013-05-19 09:50:00,67.4,33.1,30.03,West,267,10.4,10.4,28,0.00,SCT,,0.00,279.0,WeatherDisplay:10.37,2013-05-19 15:50:00,
2013-05-19 09:51:00,67.4,32.2,30.03,WSW,239,6.9,6.9,27,0.00,SCT,,0.00,287.0,WeatherDisplay:10.37,2013-05-19 15:51:00,
2013-05-19 09:52:00,67.3,33.1,30.03,WNW,287,9.2,9.2,28,0.00,SCT,,0.00,292.0,WeatherDisplay:10.37,2013-05-19 15:52:00,
2013-05-19 09:54:00,67.0,32.8,30.03,NW,312,6.9,6.9,28,0.00,SCT,,0.00,292.0,WeatherDisplay:10.37,2013-05-19 15:54:00,
2013-05-19 09:55:00,67.0,32.8,30.03,West,266,8.1,8.1,28,0.00,SCT,,0.00,292.0,WeatherDisplay:10.37,2013-05-19 15:55:00,
2013-05-19 09:56:00,67.0,32.8,30.03,WSW,255,11.0,11.0,28,0.00,SCT,,0.00,301.0,WeatherDisplay:10.37,2013-05-19 15:56:00,
2013-05-19 09:58:00,67.0,32.8,30.03,West,269,10.4,10.4,28,0.00,SCT,,0.00,306.0,WeatherDisplay:10.37,2013-05-19 15:58:00,
2013-05-19 09:59:00,67.4,33.1,30.03,SW,235,6.9,6.9,28,0.00,SCT,,0.00,306.0,WeatherDisplay:10.37,2013-05-19 15:59:00,
2013-05-19 10:01:00,66.9,31.8,30.03,SSW,210,10.4,10.4,27,0.00,SCT,,0.00,350.0,WeatherDisplay:10.37,2013-05-19 16:01:00,
2013-05-19 10:03:00,66.2,32.1,30.03,SSW,209,4.6,4.6,28,0.00,SCT,,0.00,954.0,WeatherDisplay:10.37,2013-05-19 16:03:00,
2013-05-19 10:04:00,66.1,32.0,30.03,South,169,3.0,3.0,28,0.00,SCT,,0.00,954.0,WeatherDisplay:10.37,2013-05-19 16:04:00,
2013-05-19 10:06:00,66.3,33.1,30.03,South,186,4.6,4.6,29,0.00,SCT,,0.00,773.0,WeatherDisplay:10.37,2013-05-19 16:06:00,
2013-05-19 10:07:00,66.3,32.2,30.03,South,170,6.9,6.9,28,0.00,SCT,,0.00,773.0,WeatherDisplay:10.37,2013-05-19 16:07:00,
2013-05-19 10:10:00,65.7,32.5,30.03,SW,222,4.6,4.6,29,0.00,SCT,,0.00,192.0,WeatherDisplay:10.37,2013-05-19 16:10:00,
2013-05-19 10:11:00,65.8,32.6,30.03,WSW,253,4.6,4.6,29,0.00,SCT,,0.00,209.0,WeatherDisplay:10.37,2013-05-19 16:11:00,
2013-05-19 10:12:00,65.8,32.6,30.02,WSW,253,3.5,3.5,29,0.00,SCT,,0.00,251.0,WeatherDisplay:10.37,2013-05-19 16:12:00,
2013-05-19 10:17:00,67.1,32.9,30.03,West,270,4.6,4.6,28,0.00,SCT,,0.00,332.0,WeatherDisplay:10.37,2013-05-19 16:17:00,
2013-05-19 10:18:00,67.7,33.4,30.03,WSW,244,3.5,3.5,28,0.00,SCT,,0.00,332.0,WeatherDisplay:10.37,2013-05-19 16:18:00,
2013-05-19 10:21:00,68.0,32.7,30.02,NW,322,4.6,4.6,27,0.00,SCT,,0.00,301.0,WeatherDisplay:10.37,2013-05-19 16:21:00,
2013-05-19 10:23:00,67.9,32.7,30.02,NW,322,2.0,2.4,27,0.00,SCT,,0.00,301.0,WeatherDisplay:10.37,2013-05-19 16:23:00,
2013-05-19 10:26:00,67.8,32.6,30.02,WSW,252,5.8,5.8,27,0.00,SCT,,0.00,239.0,WeatherDisplay:10.37,2013-05-19 16:26:00,
2013-05-19 10:27:00,67.9,32.7,30.02,West,281,4.6,4.6,27,0.00,SCT,,0.00,265.0,WeatherDisplay:10.37,2013-05-19 16:27:00,
2013-05-19 10:28:00,67.8,32.6,30.02,WNW,291,3.5,3.5,27,0.00,SCT,,0.00,272.0,WeatherDisplay:10.37,2013-05-19 16:28:00,
2013-05-19 10:30:00,67.6,32.4,30.02,WNW,287,3.5,3.5,27,0.00,SCT,,0.00,221.0,WeatherDisplay:10.37,2013-05-19 16:30:00,
2013-05-19 10:33:00,67.3,32.1,30.02,NW,322,3.5,3.5,27,0.00,SCT,,0.00,206.0,WeatherDisplay:10.37,2013-05-19 16:33:00,
2013-05-19 10:35:00,67.4,33.1,30.02,West,264,4.6,4.6,28,0.00,SCT,,0.00,265.0,WeatherDisplay:10.37,2013-05-19 16:35:00,
2013-05-19 10:38:00,67.9,31.7,30.02,WNW,287,9.2,9.2,26,0.00,SCT,,0.00,246.0,WeatherDisplay:10.37,2013-05-19 16:38:00,
2013-05-19 10:39:00,67.7,31.6,30.02,WNW,299,10.4,10.4,26,0.00,SCT,,0.00,264.0,WeatherDisplay:10.37,2013-05-19 16:39:00,
2013-05-19 10:40:00,67.4,31.3,30.02,West,274,8.1,8.1,26,0.00,SCT,,0.00,285.0,WeatherDisplay:10.37,2013-05-19 16:40:00,
2013-05-19 10:43:00,67.2,31.1,30.02,West,272,6.9,6.9,26,0.00,SCT,,0.00,253.0,WeatherDisplay:10.37,2013-05-19 16:43:00,
2013-05-19 10:44:00,67.2,31.1,30.02,NW,316,6.9,6.9,26,0.00,SCT,,0.00,230.0,WeatherDisplay:10.37,2013-05-19 16:44:00,
2013-05-19 10:45:00,67.1,31.0,30.02,WNW,301,8.1,8.1,26,0.00,SCT,,0.00,239.0,WeatherDisplay:10.37,2013-05-19 16:45:00,
2013-05-19 10:47:00,67.0,31.0,30.02,SW,236,9.2,9.2,26,0.00,SCT,,0.00,239.0,WeatherDisplay:10.37,2013-05-19 16:47:00,
2013-05-19 10:48:00,67.2,31.1,30.02,WSW,256,17.3,17.3,26,0.00,SCT,,0.00,257.0,WeatherDisplay:10.37,2013-05-19 16:48:00,
2013-05-19 10:50:00,67.6,31.5,30.02,West,262,6.9,6.9,26,0.00,SCT,,0.00,257.0,WeatherDisplay:10.37,2013-05-19 16:50:00,
2013-05-19 10:51:00,67.7,31.6,30.02,West,262,9.2,9.2,26,0.00,SCT,,0.00,257.0,WeatherDisplay:10.37,2013-05-19 16:51:00,
2013-05-19 10:53:00,67.9,31.7,30.02,West,265,6.9,6.9,26,0.00,SCT,,0.00,218.0,WeatherDisplay:10.37,2013-05-19 16:53:00,
2013-05-19 10:54:00,68.0,31.8,30.02,WSW,239,9.2,9.2,26,0.00,SCT,,0.00,218.0,WeatherDisplay:10.37,2013-05-19 16:54:00,
2013-05-19 10:57:00,69.1,31.8,30.02,WSW,243,10.4,10.4,25,0.00,SCT,,0.00,1056.0,WeatherDisplay:10.37,2013-05-19 16:57:00,
2013-05-19 10:58:00,69.7,32.3,30.02,SW,225,7.0,7.0,25,0.00,SCT,,0.00,963.0,WeatherDisplay:10.37,2013-05-19 16:58:00,
2013-05-19 10:59:00,69.9,31.4,30.02,WSW,254,10.4,10.4,24,0.00,SCT,,0.00,963.0,WeatherDisplay:10.37,2013-05-19 16:59:00,
2013-05-19 11:01:00,69.9,31.4,30.01,West,263,6.9,6.9,24,0.00,SCT,,0.00,963.0,WeatherDisplay:10.37,2013-05-19 17:01:00,
2013-05-19 11:04:00,70.2,30.6,30.01,WNW,297,8.1,8.1,23,0.00,SCT,,0.00,308.0,WeatherDisplay:10.37,2013-05-19 17:04:00,
2013-05-19 11:06:00,70.0,30.5,30.01,NW,323,10.0,10.0,23,0.00,SCT,,0.00,341.0,WeatherDisplay:10.37,2013-05-19 17:06:00,
2013-05-19 11:07:00,69.9,31.4,30.01,West,268,15.0,15.0,24,0.00,SCT,,0.00,341.0,WeatherDisplay:10.37,2013-05-19 17:07:00,
2013-05-19 11:11:00,70.3,30.7,30.01,WSW,242,16.1,16.1,23,0.00,BKN,,0.00,287.0,WeatherDisplay:10.37,2013-05-19 17:11:00,
2013-05-19 11:13:00,70.4,30.8,30.01,SW,231,9.2,9.2,23,0.00,BKN,,0.00,995.0,WeatherDisplay:10.37,2013-05-19 17:13:00,
2013-05-19 11:16:00,70.6,31.0,30.01,SW,226,10.4,10.4,23,0.00,BKN,,0.00,1146.0,WeatherDisplay:10.37,2013-05-19 17:16:00,
2013-05-19 11:17:00,70.7,31.1,30.01,SSW,207,8.1,8.1,23,0.00,BKN,,0.00,1146.0,WeatherDisplay:10.37,2013-05-19 17:17:00,
2013-05-19 11:18:00,70.5,30.9,30.01,South,182,6.9,6.9,23,0.00,BKN,,0.00,362.0,WeatherDisplay:10.37,2013-05-19 17:18:00,
2013-05-19 11:21:00,69.2,30.8,30.01,South,177,10.4,10.4,24,0.00,BKN,,0.00,318.0,WeatherDisplay:10.37,2013-05-19 17:21:00,
2013-05-19 11:22:00,68.9,30.6,30.01,SW,215,8.0,8.0,24,0.00,BKN,,0.00,309.0,WeatherDisplay:10.37,2013-05-19 17:22:00,
2013-05-19 11:24:00,69.2,30.8,30.01,WSW,252,9.2,9.2,24,0.00,BKN,,0.00,299.0,WeatherDisplay:10.37,2013-05-19 17:24:00,
2013-05-19 11:27:00,69.3,31.9,30.01,SSW,195,11.5,11.5,25,0.00,BKN,,0.00,345.0,WeatherDisplay:10.37,2013-05-19 17:27:00,
2013-05-19 11:28:00,69.3,31.9,30.01,SW,214,11.5,11.5,25,0.00,BKN,,0.00,360.0,WeatherDisplay:10.37,2013-05-19 17:28:00,
2013-05-19 11:30:00,69.3,30.9,30.01,SW,214,10.4,10.4,24,0.00,BKN,,0.00,380.0,WeatherDisplay:10.37,2013-05-19 17:30:00,
2013-05-19 11:31:00,69.3,30.9,30.01,West,275,11.5,11.5,24,0.00,BKN,,0.00,392.0,WeatherDisplay:10.37,2013-05-19 17:31:00,
2013-05-19 11:32:00,69.4,31.0,30.01,SW,233,15.0,15.0,24,0.00,BKN,,0.00,392.0,WeatherDisplay:10.37,2013-05-19 17:32:00,
2013-05-19 11:34:00,69.9,30.4,30.01,WSW,244,15.0,15.0,23,0.00,BKN,,0.00,1002.0,WeatherDisplay:10.37,2013-05-19 17:34:00,
2013-05-19 11:35:00,70.2,30.6,30.01,West,264,12.7,12.7,23,0.00,BKN,,0.00,932.0,WeatherDisplay:10.37,2013-05-19 17:35:00,
2013-05-19 11:36:00,70.6,31.0,30.01,WSW,255,11.5,11.5,23,0.00,BKN,,0.00,904.0,WeatherDisplay:10.37,2013-05-19 17:36:00,
2013-05-19 11:37:00,70.9,30.1,30.01,West,266,11.5,11.5,22,0.00,BKN,,0.00,573.0,WeatherDisplay:10.37,2013-05-19 17:37:00,
2013-05-19 11:42:00,70.9,30.1,30.00,SW,235,11.0,11.0,22,0.00,BKN,,0.00,744.0,WeatherDisplay:10.37,2013-05-19 17:42:00,
2013-05-19 11:44:00,71.1,31.4,30.01,WSW,246,10.4,10.4,23,0.00,BKN,,0.00,679.0,WeatherDisplay:10.37,2013-05-19 17:44:00,
2013-05-19 11:45:00,71.2,31.5,30.00,WSW,239,10.4,10.4,23,0.00,BKN,,0.00,679.0,WeatherDisplay:10.37,2013-05-19 17:45:00,
2013-05-19 11:46:00,71.2,30.4,30.00,SW,222,6.9,6.9,22,0.00,BKN,,0.00,619.0,WeatherDisplay:10.37,2013-05-19 17:46:00,
2013-05-19 11:50:00,72.5,31.5,30.00,SW,214,9.2,9.2,22,0.00,BKN,,0.00,1148.0,WeatherDisplay:10.37,2013-05-19 17:50:00,
2013-05-19 11:51:00,72.7,31.6,30.00,WSW,246,9.2,9.2,22,0.00,BKN,,0.00,1148.0,WeatherDisplay:10.37,2013-05-19 17:51:00,
2013-05-19 11:53:00,72.4,30.2,30.00,SSW,208,11.5,11.5,21,0.00,BKN,,0.00,838.0,WeatherDisplay:10.37,2013-05-19 17:53:00,
2013-05-19 11:54:00,72.1,30.0,30.00,SSW,197,13.8,13.8,21,0.00,BKN,,0.00,838.0,WeatherDisplay:10.37,2013-05-19 17:54:00,
2013-05-19 11:55:00,71.7,29.7,30.00,SSW,211,12.7,12.7,21,0.00,BKN,,0.00,838.0,WeatherDisplay:10.37,2013-05-19 17:55:00,
2013-05-19 11:58:00,71.5,30.6,30.00,SSW,193,8.1,8.1,22,0.00,BKN,,0.00,1055.0,WeatherDisplay:10.37,2013-05-19 17:58:00,
2013-05-19 12:00:00,71.7,30.8,30.00,WSW,252,12.0,12.0,22,0.00,BKN,,0.00,1187.0,WeatherDisplay:10.37,2013-05-19 18:00:00,
2013-05-19 12:02:00,72.4,30.2,30.00,SW,214,12.7,12.7,21,0.00,BKN,,0.00,1107.0,WeatherDisplay:10.37,2013-05-19 18:02:00,
2013-05-19 12:04:00,72.1,30.0,30.00,West,268,11.5,11.5,21,0.00,BKN,,0.00,1107.0,WeatherDisplay:10.37,2013-05-19 18:04:00,
2013-05-19 12:05:00,72.1,28.8,29.99,NW,310,11.5,11.5,20,0.00,BKN,,0.00,436.0,WeatherDisplay:10.37,2013-05-19 18:05:00,
2013-05-19 12:07:00,72.1,28.8,30.00,WSW,244,8.1,8.1,20,0.00,BKN,,0.00,418.0,WeatherDisplay:10.37,2013-05-19 18:07:00,
2013-05-19 12:11:00,71.1,28.0,29.99,South,185,10.4,10.4,20,0.00,BKN,,0.00,320.0,WeatherDisplay:10.37,2013-05-19 18:11:00,
2013-05-19 12:12:00,70.8,27.7,29.99,SSW,204,9.2,9.2,20,0.00,BKN,,0.00,376.0,WeatherDisplay:10.37,2013-05-19 18:12:00,
2013-05-19 12:13:00,70.7,27.6,29.99,SW,221,5.8,5.8,20,0.00,BKN,,0.00,454.0,WeatherDisplay:10.37,2013-05-19 18:13:00,
2013-05-19 12:14:00,70.6,27.5,29.99,SW,228,6.9,6.9,20,0.00,BKN,,0.00,417.0,WeatherDisplay:10.37,2013-05-19 18:14:00,
2013-05-19 12:16:00,71.2,28.0,29.99,WSW,241,9.2,9.2,20,0.00,BKN,,0.00,478.0,WeatherDisplay:10.37,2013-05-19 18:16:00,
2013-05-19 12:17:00,71.4,29.4,29.99,WSW,249,8.1,8.1,21,0.00,BKN,,0.00,766.0,WeatherDisplay:10.37,2013-05-19 18:17:00,
2013-05-19 12:22:00,73.0,28.3,29.99,SW,225,18.4,18.4,19,0.00,BKN,,0.00,997.0,WeatherDisplay:10.37,2013-05-19 18:22:00,
2013-05-19 12:23:00,73.4,28.6,29.99,SW,229,15.0,15.0,19,0.00,BKN,,0.00,953.0,WeatherDisplay:10.37,2013-05-19 18:23:00,
2013-05-19 12:26:00,73.8,27.6,29.99,WSW,243,15.0,15.0,18,0.00,BKN,,0.00,404.0,WeatherDisplay:10.37,2013-05-19 18:26:00,
2013-05-19 12:27:00,73.6,27.4,29.99,WSW,241,15.0,15.0,18,0.00,BKN,,0.00,404.0,WeatherDisplay:10.37,2013-05-19 18:27:00,
2013-05-19 12:28:00,73.7,27.5,29.99,SW,235,12.7,12.7,18,0.00,BKN,,0.00,404.0,WeatherDisplay:10.37,2013-05-19 18:28:00,
2013-05-19 12:31:00,73.8,27.6,29.99,SSW,208,11.5,11.5,18,0.00,BKN,,0.00,1136.0,WeatherDisplay:10.37,2013-05-19 18:31:00,
2013-05-19 12:33:00,73.6,27.4,29.98,SW,226,13.8,13.8,18,0.00,BKN,,0.00,1151.0,WeatherDisplay:10.37,2013-05-19 18:33:00,
2013-05-19 12:34:00,73.3,27.2,29.98,WSW,239,12.7,12.7,18,0.00,BKN,,0.00,1155.0,WeatherDisplay:10.37,2013-05-19 18:34:00,
2013-05-19 12:37:00,73.5,27.4,29.98,WSW,244,16.1,16.1,18,0.00,BKN,,0.00,1171.0,WeatherDisplay:10.37,2013-05-19 18:37:00,
2013-05-19 12:41:00,75.4,24.5,29.98,WSW,247,20.7,20.7,15,0.00,BKN,,0.00,1190.0,WeatherDisplay:10.37,2013-05-19 18:41:00,
2013-05-19 12:42:00,75.8,24.8,29.98,SW,231,17.3,17.3,15,0.00,BKN,,0.00,1197.0,WeatherDisplay:10.37,2013-05-19 18:42:00,
2013-05-19 12:44:00,75.3,22.8,29.98,SW,224,15.0,15.0,14,0.00,BKN,,0.00,1234.0,WeatherDisplay:10.37,2013-05-19 18:44:00,
2013-05-19 12:46:00,75.7,24.7,29.98,WNW,286,11.5,14.9,15,0.00,BKN,,0.00,1253.0,WeatherDisplay:10.37,2013-05-19 18:46:00,
2013-05-19 12:48:00,75.3,24.4,29.98,NW,312,19.6,19.6,15,0.00,BKN,,0.00,381.0,WeatherDisplay:10.37,2013-05-19 18:48:00,
2013-05-19 12:49:00,74.9,24.1,29.98,WNW,296,12.7,12.7,15,0.00,BKN,,0.00,415.0,WeatherDisplay:10.37,2013-05-19 18:49:00,
2013-05-19 12:50:00,74.7,23.9,29.98,West,278,11.5,11.5,15,0.00,BKN,,0.00,431.0,WeatherDisplay:10.37,2013-05-19 18:50:00,
2013-05-19 12:53:00,75.2,22.7,29.98,SW,224,16.0,16.0,14,0.00,BKN,,0.00,1255.0,WeatherDisplay:10.37,2013-05-19 18:53:00,
2013-05-19 12:56:00,75.1,22.6,29.97,SW,221,11.5,11.5,14,0.00,BKN,,0.00,339.0,WeatherDisplay:10.37,2013-05-19 18:56:00,
2013-05-19 12:57:00,74.6,23.9,29.97,WSW,256,9.2,13.5,15,0.00,BKN,,0.00,341.0,WeatherDisplay:10.37,2013-05-19 18:57:00,
2013-05-19 12:59:00,74.2,21.9,29.97,West,279,16.1,16.1,14,0.00,BKN,,0.00,390.0,WeatherDisplay:10.37,2013-05-19 18:59:00,
2013-05-19 13:00:00,74.0,21.7,29.97,WSW,252,15.0,15.0,14,0.00,BKN,,0.00,390.0,WeatherDisplay:10.37,2013-05-19 19:00:00,
2013-05-19 13:03:00,74.2,21.9,29.97,WNW,287,11.5,11.5,14,0.00,BKN,,0.00,380.0,WeatherDisplay:10.37,2013-05-19 19:03:00,
2013-05-19 13:04:00,74.3,23.6,29.98,SW,229,18.4,18.4,15,0.00,BKN,,0.00,432.0,WeatherDisplay:10.37,2013-05-19 19:04:00,
2013-05-19 13:05:00,74.6,23.9,29.97,WSW,242,11.5,11.5,15,0.00,BKN,,0.00,434.0,WeatherDisplay:10.37,2013-05-19 19:05:00,
2013-05-19 13:08:00,74.5,22.1,29.97,WSW,243,19.6,19.6,14,0.00,BKN,,0.00,434.0,WeatherDisplay:10.37,2013-05-19 19:08:00,
2013-05-19 13:11:00,74.8,22.4,29.97,WSW,249,16.1,16.1,14,0.00,BKN,,0.00,434.0,WeatherDisplay:10.37,2013-05-19 19:11:00,
2013-05-19 13:12:00,74.8,22.4,29.97,West,267,14.0,14.0,14,0.00,BKN,,0.00,1281.0,WeatherDisplay:10.37,2013-05-19 19:12:00,
2013-05-19 13:15:00,75.1,20.9,29.97,West,279,18.4,18.4,13,0.00,BKN,,0.00,1172.0,WeatherDisplay:10.37,2013-05-19 19:15:00,
2013-05-19 13:17:00,76.0,21.6,29.97,WSW,239,17.3,17.3,13,0.00,BKN,,0.00,1093.0,WeatherDisplay:10.37,2013-05-19 19:17:00,
2013-05-19 13:18:00,76.2,21.7,29.97,West,265,19.6,19.6,13,0.00,BKN,,0.00,1093.0,WeatherDisplay:10.37,2013-05-19 19:18:00,
2013-05-19 13:19:00,76.6,22.0,29.97,WSW,243,17.3,17.3,13,0.00,BKN,,0.00,1093.0,WeatherDisplay:10.37,2013-05-19 19:19:00,
2013-05-19 13:20:00,76.5,20.1,29.97,West,265,18.4,18.4,12,0.00,BKN,,0.00,1093.0,WeatherDisplay:10.37,2013-05-19 19:20:00,
2013-05-19 13:22:00,76.5,20.1,29.96,WNW,296,13.8,13.8,12,0.00,BKN,,0.00,1093.0,WeatherDisplay:10.37,2013-05-19 19:22:00,
2013-05-19 13:24:00,76.1,19.8,29.97,WNW,299,19.6,19.6,12,0.00,BKN,,0.00,388.0,WeatherDisplay:10.37,2013-05-19 19:24:00,
2013-05-19 13:25:00,75.8,19.5,29.97,West,270,19.6,19.6,12,0.00,BKN,,0.00,388.0,WeatherDisplay:10.37,2013-05-19 19:25:00,
2013-05-19 13:27:00,75.8,17.5,29.97,WNW,290,15.0,15.0,11,0.00,BKN,,0.00,364.0,WeatherDisplay:10.37,2013-05-19 19:27:00,
2013-05-19 13:28:00,75.5,17.3,29.97,West,268,19.6,19.6,11,0.00,BKN,,0.00,385.0,WeatherDisplay:10.37,2013-05-19 19:28:00,
2013-05-19 13:30:00,75.7,17.4,29.97,West,272,10.4,10.4,11,0.00,BKN,,0.00,385.0,WeatherDisplay:10.37,2013-05-19 19:30:00,
2013-05-19 13:31:00,75.9,19.6,29.96,SW,220,9.2,9.2,12,0.00,BKN,,0.00,415.0,WeatherDisplay:10.37,2013-05-19 19:31:00,
2013-05-19 13:32:00,76.0,17.6,29.96,WNW,299,11.5,11.5,11,0.00,BKN,,0.00,388.0,WeatherDisplay:10.37,2013-05-19 19:32:00,
2013-05-19 13:33:00,75.9,19.6,29.96,SW,235,13.8,13.8,12,0.00,BKN,,0.00,373.0,WeatherDisplay:10.37,2013-05-19 19:33:00,
2013-05-19 13:35:00,75.6,19.4,29.96,WSW,239,13.8,13.8,12,0.00,BKN,,0.00,397.0,WeatherDisplay:10.37,2013-05-19 19:35:00,
2013-05-19 13:38:00,75.8,19.5,29.96,West,276,21.9,21.9,12,0.00,BKN,,0.00,397.0,WeatherDisplay:10.37,2013-05-19 19:38:00,
2013-05-19 13:39:00,76.0,17.6,29.96,West,276,18.4,18.4,11,0.00,BKN,,0.00,397.0,WeatherDisplay:10.37,2013-05-19 19:39:00,
2013-05-19 13:40:00,75.8,17.5,29.96,WNW,282,24.2,24.2,11,0.00,BKN,,0.00,1225.0,WeatherDisplay:10.37,2013-05-19 19:40:00,
2013-05-19 13:41:00,76.0,17.6,29.96,West,276,17.3,17.3,11,0.00,BKN,,0.00,1225.0,WeatherDisplay:10.37,2013-05-19 19:41:00,
2013-05-19 13:44:00,76.2,17.8,29.96,WSW,252,19.6,19.6,11,0.00,BKN,,0.00,345.0,WeatherDisplay:10.37,2013-05-19 19:44:00,
2013-05-19 13:46:00,76.0,17.6,29.96,WSW,237,11.5,11.5,11,0.00,BKN,,0.00,345.0,WeatherDisplay:10.37,2013-05-19 19:46:00,
2013-05-19 13:47:00,75.9,17.6,29.96,West,273,15.0,15.0,11,0.00,BKN,,0.00,345.0,WeatherDisplay:10.37,2013-05-19 19:47:00,
2013-05-19 13:51:00,77.0,18.4,29.96,SW,215,21.9,21.9,11,0.00,BKN,,0.00,1085.0,WeatherDisplay:10.37,2013-05-19 19:51:00,
2013-05-19 13:52:00,77.0,16.2,29.96,WSW,246,14.0,14.0,10,0.00,BKN,,0.00,554.0,WeatherDisplay:10.37,2013-05-19 19:52:00,
2013-05-19 13:53:00,76.9,16.1,29.96,WNW,289,19.6,19.6,10,0.00,BKN,,0.00,554.0,WeatherDisplay:10.37,2013-05-19 19:53:00,
2013-05-19 13:54:00,76.8,18.3,29.96,WNW,293,16.1,16.1,11,0.00,BKN,,0.00,1239.0,WeatherDisplay:10.37,2013-05-19 19:54:00,
2013-05-19 13:56:00,76.9,18.3,29.96,WSW,241,21.9,21.9,11,0.00,BKN,,0.00,1216.0,WeatherDisplay:10.37,2013-05-19 19:56:00,
2013-05-19 13:57:00,77.2,18.6,29.96,WSW,245,19.6,19.6,11,0.00,BKN,,0.00,1185.0,WeatherDisplay:10.37,2013-05-19 19:57:00,
2013-05-19 13:58:00,77.4,18.7,29.96,SW,228,17.3,17.3,11,0.00,BKN,,0.00,1216.0,WeatherDisplay:10.37,2013-05-19 19:58:00,
2013-05-19 14:00:00,77.8,16.8,29.96,West,276,17.3,17.3,10,0.00,BKN,,0.00,1216.0,WeatherDisplay:10.37,2013-05-19 20:00:00,
2013-05-19 14:04:00,78.2,19.3,29.96,WSW,237,18.4,18.4,11,0.00,BKN,,0.00,1280.0,WeatherDisplay:10.37,2013-05-19 20:04:00,
2013-05-19 14:06:00,78.7,19.7,29.95,West,276,21.9,21.9,11,0.00,BKN,,0.00,1238.0,WeatherDisplay:10.37,2013-05-19 20:06:00,
2013-05-19 14:09:00,78.0,19.2,29.96,SW,234,20.7,20.7,11,0.00,BKN,,0.00,1238.0,WeatherDisplay:10.37,2013-05-19 20:09:00,
2013-05-19 14:10:00,78.0,19.2,29.96,West,266,11.5,11.5,11,0.00,BKN,,0.00,1167.0,WeatherDisplay:10.37,2013-05-19 20:10:00,
2013-05-19 14:13:00,78.7,19.7,29.95,West,270,18.4,18.4,11,0.00,BKN,,0.00,1130.0,WeatherDisplay:10.37,2013-05-19 20:13:00,
2013-05-19 14:14:00,78.7,19.7,29.96,WSW,256,15.0,15.0,11,0.00,BKN,,0.00,1123.0,WeatherDisplay:10.37,2013-05-19 20:14:00,
2013-05-19 14:15:00,78.8,17.6,29.95,WSW,245,16.1,16.1,10,0.00,BKN,,0.00,1136.0,WeatherDisplay:10.37,2013-05-19 20:15:00,
2013-05-19 14:18:00,78.2,17.1,29.95,SW,218,19.6,19.6,10,0.00,BKN,,0.00,1099.0,WeatherDisplay:10.37,2013-05-19 20:18:00,
2013-05-19 14:20:00,77.3,18.7,29.95,SW,216,18.4,18.4,11,0.00,BKN,,0.00,1099.0,WeatherDisplay:10.37,2013-05-19 20:20:00,
2013-05-19 14:22:00,77.3,18.7,29.95,West,267,14.0,14.3,11,0.00,BKN,,0.00,1099.0,WeatherDisplay:10.37,2013-05-19 20:22:00,
2013-05-19 14:23:00,77.3,18.7,29.95,WSW,246,25.3,25.3,11,0.00,BKN,,0.00,1099.0,WeatherDisplay:10.37,2013-05-19 20:23:00,
2013-05-19 14:25:00,76.7,18.2,29.95,NW,318,20.7,20.7,11,0.00,BKN,,0.00,334.0,WeatherDisplay:10.37,2013-05-19 20:25:00,
2013-05-19 14:26:00,76.8,20.3,29.95,SW,232,19.6,19.6,12,0.00,BKN,,0.00,334.0,WeatherDisplay:10.37,2013-05-19 20:26:00,
2013-05-19 14:28:00,76.9,18.3,29.95,WSW,245,15.0,15.0,11,0.00,BKN,,0.00,341.0,WeatherDisplay:10.37,2013-05-19 20:28:00,
2013-05-19 14:29:00,76.8,18.3,29.95,WNW,289,17.0,17.0,11,0.00,BKN,,0.00,308.0,WeatherDisplay:10.37,2013-05-19 20:29:00,
2013-05-19 14:31:00,76.1,17.7,29.95,WSW,243,18.0,18.0,11,0.00,BKN,,0.00,323.0,WeatherDisplay:10.37,2013-05-19 20:31:00,
2013-05-19 14:34:00,75.7,19.4,29.95,WSW,247,21.9,21.9,12,0.00,BKN,,0.00,1202.0,WeatherDisplay:10.37,2013-05-19 20:34:00,
2013-05-19 14:35:00,76.1,19.8,29.95,WSW,253,13.8,13.8,12,0.00,BKN,,0.00,1194.0,WeatherDisplay:10.37,2013-05-19 20:35:00,
2013-05-19 14:36:00,76.7,20.2,29.95,West,268,16.1,16.1,12,0.00,BKN,,0.00,1174.0,WeatherDisplay:10.37,2013-05-19 20:36:00,
2013-05-19 14:38:00,77.4,18.7,29.95,WSW,254,24.2,24.2,11,0.00,BKN,,0.00,281.0,WeatherDisplay:10.37,2013-05-19 20:38:00,
2013-05-19 14:41:00,76.8,20.3,29.95,WSW,245,19.6,19.6,12,0.00,BKN,,0.00,313.0,WeatherDisplay:10.37,2013-05-19 20:41:00,
2013-05-19 14:44:00,76.4,20.0,29.95,West,274,17.3,17.3,12,0.00,BKN,,0.00,316.0,WeatherDisplay:10.37,2013-05-19 20:44:00,
2013-05-19 14:45:00,76.2,19.8,29.95,WNW,293,19.6,19.6,12,0.00,BKN,,0.00,316.0,WeatherDisplay:10.37,2013-05-19 20:45:00,
2013-05-19 14:46:00,76.0,19.7,29.95,West,281,19.6,19.6,12,0.00,BKN,,0.00,318.0,WeatherDisplay:10.37,2013-05-19 20:46:00,
2013-05-19 14:48:00,76.1,21.6,29.95,WNW,296,15.0,15.0,13,0.00,BKN,,0.00,1165.0,WeatherDisplay:10.37,2013-05-19 20:48:00,
2013-05-19 14:51:00,76.7,22.1,29.95,West,267,24.2,24.2,13,0.00,BKN,,0.00,1055.0,WeatherDisplay:10.37,2013-05-19 20:51:00,
2013-05-19 14:52:00,77.1,22.4,29.95,WNW,298,19.6,19.6,13,0.00,BKN,,0.00,1042.0,WeatherDisplay:10.37,2013-05-19 20:52:00,
2013-05-19 14:56:00,77.8,21.1,29.95,WSW,258,24.2,24.2,12,0.00,BKN,,0.00,1027.0,WeatherDisplay:10.37,2013-05-19 20:56:00,
2013-05-19 14:57:00,77.7,22.9,29.95,WSW,237,20.7,20.7,13,0.00,BKN,,0.00,237.0,WeatherDisplay:10.37,2013-05-19 20:57:00,
2013-05-19 14:58:00,77.4,20.8,29.95,SW,236,15.0,15.0,12,0.00,BKN,,0.00,311.0,WeatherDisplay:10.37,2013-05-19 20:58:00,
2013-05-19 14:59:00,77.1,20.5,29.95,WSW,253,19.6,19.6,12,0.00,BKN,,0.00,311.0,WeatherDisplay:10.37,2013-05-19 20:59:00,
2013-05-19 15:00:00,76.9,22.3,29.95,WSW,251,12.7,12.7,13,0.00,BKN,,0.00,311.0,WeatherDisplay:10.37,2013-05-19 21:00:00,
2013-05-19 15:03:00,76.6,22.0,29.95,West,260,13.8,14.2,13,0.00,BKN,,0.00,299.0,WeatherDisplay:10.37,2013-05-19 21:03:00,
2013-05-19 15:04:00,76.4,21.9,29.95,WNW,296,23.0,23.0,13,0.00,BKN,,0.00,306.0,WeatherDisplay:10.37,2013-05-19 21:04:00,
2013-05-19 15:07:00,76.4,23.6,29.95,WSW,239,19.6,19.6,14,0.00,BKN,,0.00,1018.0,WeatherDisplay:10.37,2013-05-19 21:07:00,
2013-05-19 15:08:00,76.9,24.0,29.95,West,267,18.0,18.0,14,0.00,BKN,,0.00,930.0,WeatherDisplay:10.37,2013-05-19 21:08:00,
2013-05-19 15:09:00,77.4,24.4,29.95,SW,235,23.0,23.0,14,0.00,BKN,,0.00,972.0,WeatherDisplay:10.37,2013-05-19 21:09:00,
2013-05-19 15:12:00,77.7,22.9,29.95,WSW,247,16.1,16.1,13,0.00,BKN,,0.00,965.0,WeatherDisplay:10.37,2013-05-19 21:12:00,
2013-05-19 15:13:00,77.8,23.0,29.95,West,267,16.1,16.1,13,0.00,BKN,,0.00,1002.0,WeatherDisplay:10.37,2013-05-19 21:13:00,
2013-05-19 15:16:00,78.0,24.9,29.95,WSW,244,17.3,17.3,14,0.00,BKN,,0.00,1028.0,WeatherDisplay:10.37,2013-05-19 21:16:00,
2013-05-19 15:17:00,77.8,23.0,29.95,WNW,291,16.1,16.1,13,0.00,BKN,,0.00,197.0,WeatherDisplay:10.37,2013-05-19 21:17:00,
2013-05-19 15:18:00,77.3,24.4,29.95,West,260,20.7,20.7,14,0.00,BKN,,0.00,193.0,WeatherDisplay:10.37,2013-05-19 21:18:00,
2013-05-19 15:19:00,76.9,24.0,29.95,West,268,15.0,15.0,14,0.00,BKN,,0.00,253.0,WeatherDisplay:10.37,2013-05-19 21:19:00,
2013-05-19 15:23:00,76.3,23.6,29.95,WSW,243,11.5,11.5,14,0.00,BKN,,0.00,1014.0,WeatherDisplay:10.37,2013-05-19 21:23:00,
2013-05-19 15:24:00,76.4,23.6,29.95,SSW,206,15.0,15.0,14,0.00,BKN,,0.00,1014.0,WeatherDisplay:10.37,2013-05-19 21:24:00,
2013-05-19 15:26:00,75.8,24.8,29.95,SW,234,19.6,19.6,15,0.00,BKN,,0.00,984.0,WeatherDisplay:10.37,2013-05-19 21:26:00,
2013-05-19 15:28:00,75.8,24.8,29.95,WSW,239,15.0,15.0,15,0.00,BKN,,0.00,984.0,WeatherDisplay:10.37,2013-05-19 21:28:00,
2013-05-19 15:32:00,76.7,23.9,29.95,West,269,23.0,23.0,14,0.00,BKN,,0.00,390.0,WeatherDisplay:10.37,2013-05-19 21:32:00,
2013-05-19 15:33:00,76.7,23.9,29.95,WSW,249,23.0,23.0,14,0.00,BKN,,0.00,390.0,WeatherDisplay:10.37,2013-05-19 21:33:00,
2013-05-19 15:35:00,76.5,23.7,29.95,NW,320,19.6,19.6,14,0.00,BKN,,0.00,246.0,WeatherDisplay:10.37,2013-05-19 21:35:00,
2013-05-19 15:37:00,75.8,24.8,29.95,SW,233,13.8,13.8,15,0.00,BKN,,0.00,1055.0,WeatherDisplay:10.37,2013-05-19 21:37:00,
2013-05-19 15:40:00,76.0,25.0,29.95,WSW,246,16.1,16.1,15,0.00,BKN,,0.00,1055.0,WeatherDisplay:10.37,2013-05-19 21:40:00,
2013-05-19 15:43:00,76.0,25.0,29.95,WSW,243,15.0,15.0,15,0.00,BKN,,0.00,397.0,WeatherDisplay:10.37,2013-05-19 21:43:00,
2013-05-19 15:44:00,76.0,25.0,29.95,WSW,241,13.8,13.8,15,0.00,BKN,,0.00,397.0,WeatherDisplay:10.37,2013-05-19 21:44:00,
2013-05-19 15:47:00,76.7,23.9,29.94,West,266,12.7,16.9,14,0.00,BKN,,0.00,1018.0,WeatherDisplay:10.37,2013-05-19 21:47:00,
2013-05-19 15:48:00,77.2,24.3,29.95,SW,235,31.1,31.1,14,0.00,BKN,,0.00,1018.0,WeatherDisplay:10.37,2013-05-19 21:48:00,
2013-05-19 15:49:00,77.4,22.7,29.95,WSW,253,21.9,21.9,13,0.00,BKN,,0.00,647.0,WeatherDisplay:10.37,2013-05-19 21:49:00,
2013-05-19 15:50:00,77.3,22.6,29.95,West,268,31.1,31.1,13,0.00,BKN,,0.00,585.0,WeatherDisplay:10.37,2013-05-19 21:50:00,
2013-05-19 15:54:00,76.1,23.4,29.95,WSW,251,26.5,26.5,14,0.00,BKN,,0.00,411.0,WeatherDisplay:10.37,2013-05-19 21:54:00,
2013-05-19 15:55:00,76.0,23.3,29.95,WSW,239,25.3,25.3,14,0.00,BKN,,0.00,390.0,WeatherDisplay:10.37,2013-05-19 21:55:00,
2013-05-19 15:57:00,75.7,23.1,29.95,West,275,26.5,26.5,14,0.00,BKN,,0.00,563.0,WeatherDisplay:10.37,2013-05-19 21:57:00,
2013-05-19 15:58:00,75.7,24.7,29.95,WSW,246,20.0,20.0,15,0.00,BKN,,0.00,563.0,WeatherDisplay:10.37,2013-05-19 21:58:00,
2013-05-19 16:00:00,75.9,24.9,29.95,WSW,240,21.0,21.0,15,0.00,BKN,,0.00,473.0,WeatherDisplay:10.37,2013-05-19 22:00:00,
2013-05-19 16:01:00,75.7,24.7,29.95,WSW,249,23.0,23.0,15,0.00,BKN,,0.00,367.0,WeatherDisplay:10.37,2013-05-19 22:01:00,
2013-05-19 16:03:00,75.3,24.4,29.95,SSW,205,19.6,19.6,15,0.00,BKN,,0.00,374.0,WeatherDisplay:10.37,2013-05-19 22:03:00,
2013-05-19 16:06:00,74.6,25.4,29.95,WSW,251,23.0,23.0,16,0.00,BKN,,0.00,380.0,WeatherDisplay:10.37,2013-05-19 22:06:00,
2013-05-19 16:07:00,74.5,25.3,29.95,WSW,247,26.5,26.5,16,0.00,BKN,,0.00,355.0,WeatherDisplay:10.37,2013-05-19 22:07:00,
2013-05-19 16:10:00,74.3,25.2,29.95,SW,230,26.5,26.5,16,0.00,BKN,,0.00,290.0,WeatherDisplay:10.37,2013-05-19 22:10:00,
2013-05-19 16:11:00,74.2,26.5,29.95,WSW,247,16.1,16.1,17,0.00,BKN,,0.00,272.0,WeatherDisplay:10.37,2013-05-19 22:11:00,
2013-05-19 16:12:00,74.0,26.4,29.95,West,280,19.6,19.6,17,0.00,BKN,,0.00,244.0,WeatherDisplay:10.37,2013-05-19 22:12:00,
2013-05-19 16:15:00,73.8,26.2,29.96,WSW,245,20.7,20.7,17,0.00,BKN,,0.00,229.0,WeatherDisplay:10.37,2013-05-19 22:15:00,
2013-05-19 16:17:00,73.4,25.9,29.96,SW,236,34.5,34.5,17,0.00,BKN,,0.00,236.0,WeatherDisplay:10.37,2013-05-19 22:17:00,
2013-05-19 16:19:00,72.5,26.5,29.97,SW,230,25.3,25.3,18,0.00,BKN,,0.00,251.0,WeatherDisplay:10.37,2013-05-19 22:19:00,
2013-05-19 16:21:00,71.8,27.3,29.97,SW,227,24.2,24.2,19,0.00,BKN,,0.00,257.0,WeatherDisplay:10.37,2013-05-19 22:21:00,
2013-05-19 16:24:00,71.9,27.4,29.97,West,276,18.4,18.4,19,0.00,BKN,,0.00,264.0,WeatherDisplay:10.37,2013-05-19 22:24:00,
2013-05-19 16:25:00,72.0,26.1,29.97,WSW,237,17.3,17.3,18,0.00,BKN,,0.00,264.0,WeatherDisplay:10.37,2013-05-19 22:25:00,
2013-05-19 16:27:00,71.9,26.1,29.96,NNW,346,15.0,15.0,18,0.00,BKN,,0.00,248.0,WeatherDisplay:10.37,2013-05-19 22:27:00,
2013-05-19 16:29:00,72.0,26.1,29.96,WNW,284,12.7,12.7,18,0.00,BKN,,0.00,221.0,WeatherDisplay:10.37,2013-05-19 22:29:00,
2013-05-19 16:30:00,72.1,26.2,29.97,NW,310,16.1,16.1,18,0.00,BKN,,0.00,202.0,WeatherDisplay:10.37,2013-05-19 22:30:00,
2013-05-19 16:32:00,71.8,26.0,29.97,WNW,285,19.6,19.6,18,0.00,BKN,,0.00,197.0,WeatherDisplay:10.37,2013-05-19 22:32:00,
2013-05-19 16:33:00,71.4,27.0,29.96,WNW,289,32.2,32.2,19,0.00,BKN,,0.00,199.0,WeatherDisplay:10.37,2013-05-19 22:33:00,
2013-05-19 16:36:00,70.6,27.5,29.96,WNW,289,24.2,24.2,20,0.00,BKN,,0.00,246.0,WeatherDisplay:10.37,2013-05-19 22:36:00,
2013-05-19 16:37:00,70.4,27.4,29.97,West,274,21.9,21.9,20,0.00,BKN,,0.00,283.0,WeatherDisplay:10.37,2013-05-19 22:37:00,
2013-05-19 16:38:00,70.3,27.3,29.97,WNW,289,19.6,19.6,20,0.00,BKN,,0.00,283.0,WeatherDisplay:10.37,2013-05-19 22:38:00,
2013-05-19 16:39:00,70.2,27.2,29.97,WNW,283,24.2,24.2,20,0.00,BKN,,0.00,420.0,WeatherDisplay:10.37,2013-05-19 22:39:00,
2013-05-19 16:41:00,70.3,27.3,29.97,WSW,245,21.9,21.9,20,0.00,BKN,,0.00,417.0,WeatherDisplay:10.37,2013-05-19 22:41:00,
2013-05-19 16:42:00,70.6,27.5,29.96,WNW,301,18.4,18.4,20,0.00,BKN,,0.00,497.0,WeatherDisplay:10.37,2013-05-19 22:42:00,
2013-05-19 16:43:00,70.9,27.8,29.97,SW,224,15.0,15.0,20,0.00,BKN,,0.00,752.0,WeatherDisplay:10.37,2013-05-19 22:43:00,
2013-05-19 16:44:00,71.3,28.1,29.96,NW,304,13.8,13.8,20,0.00,BKN,,0.00,733.0,WeatherDisplay:10.37,2013-05-19 22:44:00,
2013-05-19 16:46:00,72.2,27.6,29.96,WNW,292,27.0,27.0,19,0.00,BKN,,0.00,698.0,WeatherDisplay:10.37,2013-05-19 22:46:00,
2013-05-19 16:47:00,72.4,27.8,29.96,WSW,256,26.5,26.5,19,0.00,BKN,,0.00,659.0,WeatherDisplay:10.37,2013-05-19 22:47:00,
2013-05-19 16:48:00,72.4,27.8,29.96,WSW,240,26.5,26.5,19,0.00,BKN,,0.00,649.0,WeatherDisplay:10.37,2013-05-19 22:48:00,
2013-05-19 16:51:00,72.4,27.8,29.96,West,272,17.3,17.3,19,0.00,BKN,,0.00,621.0,WeatherDisplay:10.37,2013-05-19 22:51:00,
2013-05-19 16:53:00,72.8,26.8,29.96,West,273,13.8,13.8,18,0.00,BKN,,0.00,601.0,WeatherDisplay:10.37,2013-05-19 22:53:00,
2013-05-19 16:55:00,72.8,26.8,29.96,NW,307,25.3,25.3,18,0.00,BKN,,0.00,606.0,WeatherDisplay:10.37,2013-05-19 22:55:00,
2013-05-19 16:56:00,72.6,26.6,29.96,WSW,256,19.6,19.6,18,0.00,BKN,,0.00,608.0,WeatherDisplay:10.37,2013-05-19 22:56:00,
2013-05-19 16:59:00,72.5,26.5,29.96,NW,306,20.7,20.7,18,0.00,BKN,,0.00,592.0,WeatherDisplay:10.37,2013-05-19 22:59:00,
2013-05-19 17:02:00,72.2,26.3,29.96,West,280,17.3,17.3,18,0.00,SCT,,0.00,592.0,WeatherDisplay:10.37,2013-05-19 23:02:00,
2013-05-19 17:03:00,72.2,26.3,29.96,West,262,25.3,25.3,18,0.00,SCT,,0.00,582.0,WeatherDisplay:10.37,2013-05-19 23:03:00,
2013-05-19 17:05:00,72.5,26.5,29.96,WNW,285,17.3,17.3,18,0.00,SCT,,0.00,515.0,WeatherDisplay:10.37,2013-05-19 23:05:00,
2013-05-19 17:07:00,72.5,26.5,29.96,West,274,23.0,23.0,18,0.00,SCT,,0.00,552.0,WeatherDisplay:10.37,2013-05-19 23:07:00,
2013-05-19 17:08:00,72.4,26.5,29.97,WNW,297,22.0,22.0,18,0.00,SCT,,0.00,487.0,WeatherDisplay:10.37,2013-05-19 23:08:00,
2013-05-19 17:12:00,72.4,26.5,29.97,WSW,258,18.4,18.4,18,0.00,SCT,,0.00,601.0,WeatherDisplay:10.37,2013-05-19 23:12:00,
2013-05-19 17:13:00,72.4,26.5,29.97,West,260,25.3,25.3,18,0.00,SCT,,0.00,598.0,WeatherDisplay:10.37,2013-05-19 23:13:00,
2013-05-19 17:15:00,72.3,26.4,29.96,WSW,247,19.6,19.6,18,0.00,SCT,,0.00,589.0,WeatherDisplay:10.37,2013-05-19 23:15:00,
2013-05-19 17:18:00,72.4,26.5,29.97,WSW,248,25.3,25.3,18,0.00,SCT,,0.00,559.0,WeatherDisplay:10.37,2013-05-19 23:18:00,
2013-05-19 17:21:00,72.4,27.8,29.97,WNW,286,20.7,20.7,19,0.00,SCT,,0.00,547.0,WeatherDisplay:10.37,2013-05-19 23:21:00,
2013-05-19 17:22:00,72.3,27.7,29.96,West,270,26.5,26.5,19,0.00,SCT,,0.00,547.0,WeatherDisplay:10.37,2013-05-19 23:22:00,
2013-05-19 17:23:00,72.2,27.6,29.96,West,262,20.7,20.7,19,0.00,SCT,,0.00,543.0,WeatherDisplay:10.37,2013-05-19 23:23:00,
2013-05-19 17:25:00,72.2,28.9,29.96,NW,304,20.7,20.7,20,0.00,SCT,,0.00,510.0,WeatherDisplay:10.37,2013-05-19 23:25:00,
2013-05-19 17:27:00,72.0,28.7,29.96,WNW,291,18.4,18.4,20,0.00,SCT,,0.00,432.0,WeatherDisplay:10.37,2013-05-19 23:27:00,
2013-05-19 17:28:00,72.0,28.7,29.96,West,270,12.7,12.7,20,0.00,SCT,,0.00,450.0,WeatherDisplay:10.37,2013-05-19 23:28:00,
2013-05-19 17:30:00,72.2,28.9,29.96,WNW,282,20.7,20.7,20,0.00,SCT,,0.00,587.0,WeatherDisplay:10.37,2013-05-19 23:30:00,
2013-05-19 17:32:00,72.2,27.6,29.96,West,264,25.0,25.0,19,0.00,SCT,,0.00,543.0,WeatherDisplay:10.37,2013-05-19 23:32:00,
2013-05-19 17:33:00,72.2,27.6,29.96,WSW,257,25.3,25.3,19,0.00,SCT,,0.00,448.0,WeatherDisplay:10.37,2013-05-19 23:33:00,
2013-05-19 17:34:00,72.2,27.6,29.96,West,265,20.7,20.7,19,0.00,SCT,,0.00,448.0,WeatherDisplay:10.37,2013-05-19 23:34:00,
2013-05-19 17:37:00,71.9,27.4,29.96,WSW,258,19.6,19.6,19,0.00,SCT,,0.00,585.0,WeatherDisplay:10.37,2013-05-19 23:37:00,
2013-05-19 17:38:00,72.2,27.6,29.96,WNW,295,18.4,18.4,19,0.00,SCT,,0.00,564.0,WeatherDisplay:10.37,2013-05-19 23:38:00,
2013-05-19 17:39:00,72.5,27.9,29.96,WNW,302,11.5,11.5,19,0.00,SCT,,0.00,503.0,WeatherDisplay:10.37,2013-05-19 23:39:00,
2013-05-19 17:41:00,72.6,27.9,29.95,West,270,17.3,17.3,19,0.00,SCT,,0.00,485.0,WeatherDisplay:10.37,2013-05-19 23:41:00,
2013-05-19 17:43:00,72.4,26.5,29.95,West,265,23.0,23.0,18,0.00,SCT,,0.00,466.0,WeatherDisplay:10.37,2013-05-19 23:43:00,
2013-05-19 17:44:00,72.4,26.5,29.96,WNW,292,25.3,25.3,18,0.00,SCT,,0.00,455.0,WeatherDisplay:10.37,2013-05-19 23:44:00,
2013-05-19 17:46:00,72.3,26.4,29.96,WNW,287,17.3,17.3,18,0.00,SCT,,0.00,445.0,WeatherDisplay:10.37,2013-05-19 23:46:00,
2013-05-19 17:48:00,72.4,26.5,29.95,West,272,19.0,19.0,18,0.00,SCT,,0.00,438.0,WeatherDisplay:10.37,2013-05-19 23:48:00,
2013-05-19 17:49:00,72.5,26.5,29.95,WSW,258,16.1,16.1,18,0.00,SCT,,0.00,434.0,WeatherDisplay:10.37,2013-05-19 23:49:00,
2013-05-19 17:51:00,72.7,25.3,29.96,WNW,289,19.6,19.6,17,0.00,SCT,,0.00,431.0,WeatherDisplay:10.37,2013-05-19 23:51:00,
2013-05-19 17:54:00,72.5,25.2,29.95,West,276,19.6,19.6,17,0.00,SCT,,0.00,418.0,WeatherDisplay:10.37,2013-05-19 23:54:00,
2013-05-19 17:56:00,72.3,25.0,29.95,West,274,23.0,23.0,17,0.00,SCT,,0.00,406.0,WeatherDisplay:10.37,2013-05-19 23:56:00,
2013-05-19 17:58:00,72.2,26.3,29.95,West,275,17.3,17.3,18,0.00,SCT,,0.00,396.0,WeatherDisplay:10.37,2013-05-19 23:58:00,
2013-05-19 18:01:00,72.1,26.2,29.96,South,191,18.4,18.4,18,0.00,SCT,,0.00,388.0,WeatherDisplay:10.37,2013-05-20 00:01:00,
2013-05-19 18:02:00,72.1,26.2,29.95,West,260,16.1,16.1,18,0.00,SCT,,0.00,385.0,WeatherDisplay:10.37,2013-05-20 00:02:00,
2013-05-19 18:04:00,72.2,24.9,29.96,WNW,292,23.0,23.0,17,0.00,SCT,,0.00,385.0,WeatherDisplay:10.37,2013-05-20 00:04:00,
2013-05-19 18:06:00,71.9,23.2,29.95,WNW,287,19.6,19.6,16,0.00,SCT,,0.00,378.0,WeatherDisplay:10.37,2013-05-20 00:06:00,
2013-05-19 18:07:00,71.8,24.6,29.95,WSW,247,16.1,16.1,17,0.00,SCT,,0.00,373.0,WeatherDisplay:10.37,2013-05-20 00:07:00,
2013-05-19 18:09:00,71.8,24.6,29.95,West,281,18.4,18.4,17,0.00,SCT,,0.00,367.0,WeatherDisplay:10.37,2013-05-20 00:09:00,
2013-05-19 18:11:00,71.8,24.6,29.95,West,273,13.8,13.8,17,0.00,SCT,,0.00,309.0,WeatherDisplay:10.37,2013-05-20 00:11:00,
2013-05-19 18:12:00,71.9,24.7,29.95,West,272,15.0,15.0,17,0.00,SCT,,0.00,283.0,WeatherDisplay:10.37,2013-05-20 00:12:00,
2013-05-19 18:13:00,72.0,24.8,29.95,WSW,237,15.0,15.0,17,0.00,SCT,,0.00,320.0,WeatherDisplay:10.37,2013-05-20 00:13:00,
2013-05-19 18:14:00,72.0,24.8,29.95,WNW,293,12.7,12.7,17,0.00,SCT,,0.00,262.0,WeatherDisplay:10.37,2013-05-20 00:14:00,
2013-05-19 18:15:00,72.2,24.9,29.95,West,260,9.2,9.2,17,0.00,SCT,,0.00,332.0,WeatherDisplay:10.37,2013-05-20 00:15:00,
2013-05-19 18:19:00,71.7,24.5,29.95,West,268,19.6,19.6,17,0.00,SCT,,0.00,343.0,WeatherDisplay:10.37,2013-05-20 00:19:00,
2013-05-19 18:20:00,71.7,24.5,29.95,West,281,17.3,17.3,17,0.00,SCT,,0.00,304.0,WeatherDisplay:10.37,2013-05-20 00:20:00,
2013-05-19 18:22:00,71.9,24.7,29.95,WSW,254,18.4,18.4,17,0.00,SCT,,0.00,292.0,WeatherDisplay:10.37,2013-05-20 00:22:00,
2013-05-19 18:25:00,71.5,22.9,29.95,WNW,283,17.3,17.3,16,0.00,SCT,,0.00,69.0,WeatherDisplay:10.37,2013-05-20 00:25:00,
2013-05-19 18:27:00,71.2,22.7,29.95,West,268,23.0,23.0,16,0.00,SCT,,0.00,67.0,WeatherDisplay:10.37,2013-05-20 00:27:00,
2013-05-19 18:28:00,71.0,24.0,29.95,NW,305,18.4,18.4,17,0.00,SCT,,0.00,69.0,WeatherDisplay:10.37,2013-05-20 00:28:00,
2013-05-19 18:30:00,70.7,23.7,29.95,SW,216,18.4,18.4,17,0.00,SCT,,0.00,74.0,WeatherDisplay:10.37,2013-05-20 00:30:00,
2013-05-19 18:32:00,70.4,23.5,29.95,WNW,285,17.3,17.3,17,0.00,SCT,,0.00,86.0,WeatherDisplay:10.37,2013-05-20 00:32:00,
2013-05-19 18:34:00,70.2,23.3,29.95,WSW,254,15.0,15.0,17,0.00,SCT,,0.00,105.0,WeatherDisplay:10.37,2013-05-20 00:34:00,
2013-05-19 18:36:00,70.2,23.3,29.95,West,264,16.1,16.1,17,0.00,SCT,,0.00,114.0,WeatherDisplay:10.37,2013-05-20 00:36:00,
2013-05-19 18:37:00,70.3,23.4,29.95,WNW,283,11.5,11.5,17,0.00,SCT,,0.00,118.0,WeatherDisplay:10.37,2013-05-20 00:37:00,
2013-05-19 18:40:00,70.5,23.5,29.95,West,266,11.5,11.7,17,0.00,SCT,,0.00,120.0,WeatherDisplay:10.37,2013-05-20 00:40:00,
2013-05-19 18:41:00,70.4,23.5,29.95,WSW,248,20.7,20.7,17,0.00,SCT,,0.00,118.0,WeatherDisplay:10.37,2013-05-20 00:41:00,
2013-05-19 18:42:00,70.4,23.5,29.95,WNW,283,21.9,21.9,17,0.00,SCT,,0.00,121.0,WeatherDisplay:10.37,2013-05-20 00:42:00,
2013-05-19 18:43:00,70.3,23.4,29.95,West,275,19.6,19.6,17,0.00,SCT,,0.00,123.0,WeatherDisplay:10.37,2013-05-20 00:43:00,
2013-05-19 18:44:00,70.2,23.3,29.95,WNW,295,13.8,13.8,17,0.00,SCT,,0.00,153.0,WeatherDisplay:10.37,2013-05-20 00:44:00,
2013-05-19 18:49:00,70.4,23.5,29.95,WNW,293,11.5,11.5,17,0.00,SCT,,0.00,239.0,WeatherDisplay:10.37,2013-05-20 00:49:00,
2013-05-19 18:50:00,70.5,23.5,29.95,NW,316,8.1,8.1,17,0.00,SCT,,0.00,225.0,WeatherDisplay:10.37,2013-05-20 00:50:00,
2013-05-19 18:52:00,70.8,23.8,29.95,West,279,12.7,12.7,17,0.00,SCT,,0.00,218.0,WeatherDisplay:10.37,2013-05-20 00:52:00,
2013-05-19 18:54:00,71.0,24.0,29.95,West,276,11.5,11.5,17,0.00,SCT,,0.00,207.0,WeatherDisplay:10.37,2013-05-20 00:54:00,
2013-05-19 18:56:00,71.1,24.0,29.95,West,259,6.9,6.9,17,0.00,SCT,,0.00,193.0,WeatherDisplay:10.37,2013-05-20 00:56:00,
2013-05-19 18:57:00,71.2,24.1,29.95,WSW,258,6.9,6.9,17,0.00,SCT,,0.00,188.0,WeatherDisplay:10.37,2013-05-20 00:57:00,
2013-05-19 18:59:00,71.4,24.3,29.95,West,262,10.4,10.4,17,0.00,SCT,,0.00,176.0,WeatherDisplay:10.37,2013-05-20 00:59:00,
2013-05-19 19:02:00,71.1,25.4,29.95,WNW,289,15.0,15.0,18,0.00,SCT,,0.00,146.0,WeatherDisplay:10.37,2013-05-20 01:02:00,
2013-05-19 19:03:00,70.9,25.2,29.95,West,272,18.4,18.4,18,0.00,SCT,,0.00,130.0,WeatherDisplay:10.37,2013-05-20 01:03:00,
2013-05-19 19:04:00,70.8,25.2,29.95,SW,227,15.0,15.0,18,0.00,SCT,,0.00,86.0,WeatherDisplay:10.37,2013-05-20 01:04:00,
2013-05-19 19:06:00,70.6,25.0,29.95,WNW,285,19.6,19.6,18,0.00,SCT,,0.00,40.0,WeatherDisplay:10.37,2013-05-20 01:06:00,
2013-05-19 19:08:00,70.2,24.7,29.95,West,281,17.3,17.3,18,0.00,SCT,,0.00,39.0,WeatherDisplay:10.37,2013-05-20 01:08:00,
2013-05-19 19:09:00,70.1,24.6,29.95,WNW,300,19.6,19.6,18,0.00,SCT,,0.00,39.0,WeatherDisplay:10.37,2013-05-20 01:09:00,
2013-05-19 19:13:00,69.7,25.6,29.95,West,260,15.0,15.0,19,0.00,SCT,,0.00,49.0,WeatherDisplay:10.37,2013-05-20 01:13:00,
2013-05-19 19:14:00,69.5,25.4,29.95,West,273,18.4,18.4,19,0.00,SCT,,0.00,54.0,WeatherDisplay:10.37,2013-05-20 01:14:00,
2013-05-19 19:15:00,69.5,25.4,29.95,WNW,292,18.4,18.4,19,0.00,SCT,,0.00,56.0,WeatherDisplay:10.37,2013-05-20 01:15:00,
2013-05-19 19:18:00,69.2,25.1,29.95,WNW,290,15.0,15.0,19,0.00,SCT,,0.00,58.0,WeatherDisplay:10.37,2013-05-20 01:18:00,
2013-05-19 19:20:00,69.2,25.1,29.95,West,260,13.8,13.8,19,0.00,SCT,,0.00,53.0,WeatherDisplay:10.37,2013-05-20 01:20:00,
2013-05-19 19:21:00,69.1,25.1,29.95,West,259,16.1,16.1,19,0.00,SCT,,0.00,51.0,WeatherDisplay:10.37,2013-05-20 01:21:00,
2013-05-19 19:22:00,69.0,26.2,29.95,WNW,290,20.7,20.7,20,0.00,SCT,,0.00,47.0,WeatherDisplay:10.37,2013-05-20 01:22:00,
2013-05-19 19:24:00,68.9,26.1,29.95,West,269,18.0,18.0,20,0.00,SCT,,0.00,42.0,WeatherDisplay:10.37,2013-05-20 01:24:00,
2013-05-19 19:26:00,68.7,26.0,29.96,WNW,295,21.9,21.9,20,0.00,SCT,,0.00,37.0,WeatherDisplay:10.37,2013-05-20 01:26:00,
2013-05-19 19:27:00,68.7,26.0,29.96,WNW,289,19.6,19.6,20,0.00,SCT,,0.00,35.0,WeatherDisplay:10.37,2013-05-20 01:27:00,
2013-05-19 19:28:00,68.6,25.9,29.96,WNW,284,19.6,19.6,20,0.00,SCT,,0.00,35.0,WeatherDisplay:10.37,2013-05-20 01:28:00,
2013-05-19 19:30:00,68.5,25.8,29.96,West,262,17.3,17.3,20,0.00,SCT,,0.00,32.0,WeatherDisplay:10.37,2013-05-20 01:30:00,
2013-05-19 19:32:00,68.4,26.9,29.96,WNW,289,19.6,19.6,21,0.00,SCT,,0.00,32.0,WeatherDisplay:10.37,2013-05-20 01:32:00,
2013-05-19 19:33:00,68.4,26.9,29.96,West,268,23.0,23.0,21,0.00,SCT,,0.00,33.0,WeatherDisplay:10.37,2013-05-20 01:33:00,
2013-05-19 19:35:00,68.3,26.8,29.96,West,276,23.0,23.0,21,0.00,SCT,,0.00,40.0,WeatherDisplay:10.37,2013-05-20 01:35:00,
2013-05-19 19:36:00,68.2,26.7,29.96,WNW,289,23.0,23.0,21,0.00,SCT,,0.00,39.0,WeatherDisplay:10.37,2013-05-20 01:36:00,
2013-05-19 19:38:00,68.1,26.7,29.96,West,264,20.7,20.7,21,0.00,SCT,,0.00,28.0,WeatherDisplay:10.37,2013-05-20 01:38:00,
2013-05-19 19:39:00,68.0,26.6,29.96,WNW,283,25.3,25.3,21,0.00,SCT,,0.00,26.0,WeatherDisplay:10.37,2013-05-20 01:39:00,
2013-05-19 19:40:00,68.0,26.6,29.97,West,265,16.1,16.1,21,0.00,SCT,,0.00,26.0,WeatherDisplay:10.37,2013-05-20 01:40:00,
2013-05-19 19:43:00,67.9,27.6,29.97,WNW,283,21.9,21.9,22,0.00,SCT,,0.00,23.0,WeatherDisplay:10.37,2013-05-20 01:43:00,
2013-05-19 19:45:00,67.7,27.5,29.97,WNW,294,19.6,19.6,22,0.00,SCT,,0.00,23.0,WeatherDisplay:10.37,2013-05-20 01:45:00,
2013-05-19 19:46:00,67.6,27.4,29.97,WNW,287,20.7,20.7,22,0.00,SCT,,0.00,23.0,WeatherDisplay:10.37,2013-05-20 01:46:00,
2013-05-19 19:49:00,67.5,27.3,29.97,NW,306,18.4,18.4,22,0.00,SCT,,0.00,25.0,WeatherDisplay:10.37,2013-05-20 01:49:00,
2013-05-19 19:50:00,67.5,27.3,29.97,West,279,16.1,16.1,22,0.00,SCT,,0.00,23.0,WeatherDisplay:10.37,2013-05-20 01:50:00,
2013-05-19 19:51:00,67.5,27.3,29.97,WNW,289,11.5,13.6,22,0.00,SCT,,0.00,19.0,WeatherDisplay:10.37,2013-05-20 01:51:00,
2013-05-19 19:54:00,67.4,27.2,29.97,NNW,329,13.8,13.8,22,0.00,SCT,,0.00,12.0,WeatherDisplay:10.37,2013-05-20 01:54:00,
2013-05-19 19:55:00,67.3,27.1,29.97,NW,304,18.4,18.4,22,0.00,SCT,,0.00,11.0,WeatherDisplay:10.37,2013-05-20 01:55:00,
2013-05-19 19:59:00,67.1,26.9,29.97,West,278,18.4,18.4,22,0.00,SCT,,0.00,7.0,WeatherDisplay:10.37,2013-05-20 01:59:00,
2013-05-19 20:00:00,67.1,26.9,29.97,WNW,285,16.1,16.1,22,0.00,SCT,,0.00,5.0,WeatherDisplay:10.37,2013-05-20 02:00:00,
2013-05-19 20:02:00,67.0,26.9,29.97,WNW,284,11.5,11.5,22,0.00,SCT,,0.00,5.0,WeatherDisplay:10.37,2013-05-20 02:02:00,
2013-05-19 20:04:00,66.9,26.8,29.96,WNW,287,10.4,10.4,22,0.00,SCT,,0.00,5.0,WeatherDisplay:10.37,2013-05-20 02:04:00,
2013-05-19 20:05:00,66.9,26.8,29.96,WNW,296,13.8,13.8,22,0.00,SCT,,0.00,0.0,WeatherDisplay:10.37,2013-05-20 02:05:00,
2013-05-19 20:08:00,66.7,27.7,29.97,South,189,16.1,16.1,23,0.00,SCT,,0.00,0.0,WeatherDisplay:10.37,2013-05-20 02:08:00,
2013-05-19 20:10:00,66.4,28.5,29.97,West,274,26.5,26.5,24,0.00,SCT,,0.00,0.0,WeatherDisplay:10.37,2013-05-20 02:10:00,
2013-05-19 20:11:00,66.1,29.2,29.97,WNW,302,17.3,17.3,25,0.00,SCT,,0.00,0.0,WeatherDisplay:10.37,2013-05-20 02:11:00,
2013-05-19 20:13:00,65.6,28.8,29.97,WNW,283,17.0,17.0,25,0.00,SCT,,0.00,0.0,WeatherDisplay:10.37,2013-05-20 02:13:00,
2013-05-19 20:14:00,65.4,28.6,29.97,WNW,288,21.9,21.9,25,0.00,SCT,,0.00,0.0,WeatherDisplay:10.37,2013-05-20 02:14:00,
2013-05-19 20:17:00,64.9,29.2,29.97,WNW,290,19.6,19.6,26,0.00,SCT,,0.00,0.0,WeatherDisplay:10.37,2013-05-20 02:17:00,
2013-05-19 20:18:00,64.7,29.0,29.97,WSW,246,19.6,19.6,26,0.00,SCT,,0.00,0.0,WeatherDisplay:10.37,2013-05-20 02:18:00,
2013-05-19 20:19:00,64.6,28.9,29.97,West,272,20.7,20.7,26,0.00,SCT,,0.00,0.0,WeatherDisplay:10.37,2013-05-20 02:19:00,
2013-05-19 20:21:00,64.4,29.7,29.97,WNW,293,17.3,17.3,27,0.00,SCT,,0.00,0.0,WeatherDisplay:10.37,2013-05-20 02:21:00,
2013-05-19 20:22:00,64.3,30.5,29.97,WNW,283,19.6,19.6,28,0.00,SCT,,0.00,0.0,WeatherDisplay:10.37,2013-05-20 02:22:00,
2013-05-19 20:24:00,64.0,31.1,29.97,WNW,299,24.2,24.2,29,0.00,SCT,,0.00,0.0,WeatherDisplay:10.37,2013-05-20 02:24:00,
2013-05-19 20:28:00,63.5,30.6,29.97,WNW,295,18.4,18.4,29,0.00,SCT,,0.00,0.0,WeatherDisplay:10.37,2013-05-20 02:28:00,
2013-05-19 20:30:00,63.3,30.5,29.97,WNW,287,16.1,16.1,29,0.00,SCT,,0.00,0.0,WeatherDisplay:10.37,2013-05-20 02:30:00,
2013-05-19 20:33:00,63.2,31.2,29.97,WNW,282,10.4,10.4,30,0.00,SCT,,0.00,0.0,WeatherDisplay:10.37,2013-05-20 02:33:00,
2013-05-19 20:35:00,63.1,31.1,29.97,WNW,284,11.5,11.5,30,0.00,SCT,,0.00,0.0,WeatherDisplay:10.37,2013-05-20 02:35:00,
2013-05-19 20:37:00,63.0,31.0,29.97,WNW,283,10.4,10.4,30,0.00,SCT,,0.00,0.0,WeatherDisplay:10.37,2013-05-20 02:37:00,
2013-05-19 20:38:00,62.9,31.0,29.97,West,274,11.5,11.5,30,0.00,SCT,,0.00,0.0,WeatherDisplay:10.37,2013-05-20 02:38:00,
2013-05-19 20:39:00,62.9,31.0,29.97,West,273,15.0,15.0,30,0.00,SCT,,0.00,0.0,WeatherDisplay:10.37,2013-05-20 02:39:00,
2013-05-19 20:40:00,62.9,31.0,29.97,NW,314,11.5,11.5,30,0.00,SCT,,0.00,0.0,WeatherDisplay:10.37,2013-05-20 02:40:00,
2013-05-19 20:42:00,62.8,30.9,29.97,West,260,16.1,16.1,30,0.00,SCT,,0.00,0.0,WeatherDisplay:10.37,2013-05-20 02:42:00,
2013-05-19 20:43:00,62.8,30.9,29.98,West,272,12.7,12.7,30,0.00,SCT,,0.00,0.0,WeatherDisplay:10.37,2013-05-20 02:43:00,
2013-05-19 20:45:00,62.7,30.8,29.97,West,275,11.5,11.5,30,0.00,SCT,,0.00,0.0,WeatherDisplay:10.37,2013-05-20 02:45:00,
2013-05-19 20:47:00,62.7,30.8,29.97,West,276,13.8,13.8,30,0.00,SCT,,0.00,0.0,WeatherDisplay:10.37,2013-05-20 02:47:00,
2013-05-19 20:49:00,62.7,30.8,29.97,NW,311,19.6,19.6,30,0.00,SCT,,0.00,0.0,WeatherDisplay:10.37,2013-05-20 02:49:00,
2013-05-19 20:50:00,62.6,30.7,29.97,SW,233,17.3,17.3,30,0.00,SCT,,0.00,0.0,WeatherDisplay:10.37,2013-05-20 02:50:00,
2013-05-19 20:53:00,62.6,30.7,29.97,NNW,330,13.8,13.8,30,0.00,SCT,,0.00,0.0,WeatherDisplay:10.37,2013-05-20 02:53:00,
2013-05-19 20:54:00,62.6,31.5,29.97,NW,304,18.4,18.4,31,0.00,SCT,,0.00,0.0,WeatherDisplay:10.37,2013-05-20 02:54:00,
2013-05-19 20:56:00,62.5,31.4,29.98,WNW,295,16.1,16.1,31,0.00,SCT,,0.00,0.0,WeatherDisplay:10.37,2013-05-20 02:56:00,
2013-05-19 20:58:00,62.5,31.4,29.98,NW,306,13.8,13.8,31,0.00,SCT,,0.00,0.0,WeatherDisplay:10.37,2013-05-20 02:58:00,
2013-05-19 20:59:00,62.5,31.4,29.98,West,277,14.0,14.0,31,0.00,SCT,,0.00,0.0,WeatherDisplay:10.37,2013-05-20 02:59:00,
2013-05-19 21:02:00,62.5,31.4,29.98,NW,306,12.7,12.7,31,0.00,SCT,,0.00,0.0,WeatherDisplay:10.37,2013-05-20 03:02:00,
2013-05-19 21:03:00,62.5,31.4,29.98,West,268,15.0,15.0,31,0.00,SCT,,0.00,0.0,WeatherDisplay:10.37,2013-05-20 03:03:00,
2013-05-19 21:04:00,62.4,31.3,29.98,WNW,297,17.3,17.3,31,0.00,SCT,,0.00,0.0,WeatherDisplay:10.37,2013-05-20 03:04:00,
2013-05-19 21:07:00,62.4,31.3,29.98,West,262,11.5,11.5,31,0.00,SCT,,0.00,0.0,WeatherDisplay:10.37,2013-05-20 03:07:00,
2013-05-19 21:08:00,62.4,31.3,29.98,WNW,295,13.8,13.8,31,0.00,SCT,,0.00,0.0,WeatherDisplay:10.37,2013-05-20 03:08:00,
2013-05-19 21:09:00,62.4,31.3,29.98,WNW,293,17.3,17.3,31,0.00,SCT,,0.00,0.0,WeatherDisplay:10.37,2013-05-20 03:09:00,
2013-05-19 21:12:00,62.3,31.3,29.98,WNW,298,17.3,17.3,31,0.00,SCT,,0.00,0.0,WeatherDisplay:10.37,2013-05-20 03:12:00,
2013-05-19 21:13:00,62.3,31.3,29.99,WNW,299,13.8,13.8,31,0.00,SCT,,0.00,0.0,WeatherDisplay:10.37,2013-05-20 03:13:00,
2013-05-19 21:15:00,62.3,31.3,29.98,WNW,291,20.7,20.7,31,0.00,SCT,,0.00,0.0,WeatherDisplay:10.37,2013-05-20 03:15:00,
2013-05-19 21:16:00,62.3,31.3,29.98,WNW,292,16.1,16.1,31,0.00,SCT,,0.00,0.0,WeatherDisplay:10.37,2013-05-20 03:16:00,
2013-05-19 21:18:00,62.2,31.2,29.98,West,279,12.7,12.7,31,0.00,SCT,,0.00,0.0,WeatherDisplay:10.37,2013-05-20 03:18:00,
2013-05-19 21:19:00,62.2,31.2,29.98,WNW,287,11.5,11.5,31,0.00,SCT,,0.00,0.0,WeatherDisplay:10.37,2013-05-20 03:19:00,
2013-05-19 21:21:00,62.2,32.0,29.98,NW,313,15.0,15.0,32,0.00,SCT,,0.00,0.0,WeatherDisplay:10.37,2013-05-20 03:21:00,
2013-05-19 21:23:00,62.1,31.9,29.98,WNW,293,12.0,12.0,32,0.00,SCT,,0.00,0.0,WeatherDisplay:10.37,2013-05-20 03:23:00,
2013-05-19 21:24:00,62.2,32.0,29.98,NW,310,12.7,12.7,32,0.00,SCT,,0.00,0.0,WeatherDisplay:10.37,2013-05-20 03:24:00,
2013-05-19 21:26:00,62.1,31.9,29.98,WNW,295,13.8,13.8,32,0.00,SCT,,0.00,0.0,WeatherDisplay:10.37,2013-05-20 03:26:00,
2013-05-19 21:28:00,62.1,31.9,29.99,WSW,258,8.1,8.1,32,0.00,SCT,,0.00,0.0,WeatherDisplay:10.37,2013-05-20 03:28:00,
2013-05-19 21:29:00,62.1,31.1,29.99,NW,314,11.5,11.5,31,0.00,SCT,,0.00,0.0,WeatherDisplay:10.37,2013-05-20 03:29:00,
2013-05-19 21:32:00,62.0,31.8,29.99,NW,304,11.5,11.5,32,0.00,SCT,,0.00,0.0,WeatherDisplay:10.37,2013-05-20 03:32:00,
2013-05-19 21:33:00,62.0,31.8,29.99,NW,322,12.7,12.7,32,0.00,SCT,,0.00,0.0,WeatherDisplay:10.37,2013-05-20 03:33:00,
2013-05-19 21:35:00,62.0,31.8,29.99,NNW,337,12.7,12.7,32,0.00,SCT,,0.00,0.0,WeatherDisplay:10.37,2013-05-20 03:35:00,
2013-05-19 21:38:00,61.8,31.6,29.99,NW,324,11.5,11.5,32,0.00,SCT,,0.00,0.0,WeatherDisplay:10.37,2013-05-20 03:38:00,
2013-05-19 21:39:00,61.8,31.6,29.99,NNW,329,10.4,10.4,32,0.00,SCT,,0.00,0.0,WeatherDisplay:10.37,2013-05-20 03:39:00,
2013-05-19 21:41:00,61.8,31.6,29.99,NW,314,10.4,10.4,32,0.00,SCT,,0.00,0.0,WeatherDisplay:10.37,2013-05-20 03:41:00,
2013-05-19 21:43:00,61.7,31.5,29.99,NW,320,9.2,9.2,32,0.00,SCT,,0.00,0.0,WeatherDisplay:10.37,2013-05-20 03:43:00,
2013-05-19 21:45:00,61.7,31.5,29.99,NNW,331,11.5,11.5,32,0.00,SCT,,0.00,0.0,WeatherDisplay:10.37,2013-05-20 03:45:00,
2013-05-19 21:48:00,61.6,31.4,30.00,NW,315,5.8,5.8,32,0.00,SCT,,0.00,0.0,WeatherDisplay:10.37,2013-05-20 03:48:00,
2013-05-19 21:49:00,61.6,31.4,30.00,NNW,337,5.8,5.8,32,0.00,SCT,,0.00,0.0,WeatherDisplay:10.37,2013-05-20 03:49:00,
2013-05-19 21:50:00,61.5,31.3,30.00,NNE,27,8.1,8.1,32,0.00,SCT,,0.00,0.0,WeatherDisplay:10.37,2013-05-20 03:50:00,
2013-05-19 21:51:00,61.5,31.3,30.00,North,355,9.2,9.2,32,0.00,SCT,,0.00,0.0,WeatherDisplay:10.37,2013-05-20 03:51:00,
2013-05-19 21:54:00,61.5,31.3,30.00,NNW,345,8.1,8.1,32,0.00,SCT,,0.00,0.0,WeatherDisplay:10.37,2013-05-20 03:54:00,
2013-05-19 21:55:00,61.4,31.3,30.00,North,355,6.9,6.9,32,0.00,SCT,,0.00,0.0,WeatherDisplay:10.37,2013-05-20 03:55:00,
2013-05-19 21:57:00,61.4,31.3,30.00,North,355,3.5,3.5,32,0.00,SCT,,0.00,0.0,WeatherDisplay:10.37,2013-05-20 03:57:00,
2013-05-19 22:01:00,61.4,31.3,30.00,North,355,5.8,5.8,32,0.00,BKN,,0.00,0.0,WeatherDisplay:10.37,2013-05-20 04:01:00,
2013-05-19 22:04:00,61.4,31.3,30.00,North,11,4.6,4.6,32,0.00,BKN,,0.00,0.0,WeatherDisplay:10.37,2013-05-20 04:04:00,
2013-05-19 22:06:00,61.5,31.3,30.00,North,6,4.6,4.6,32,0.00,BKN,,0.00,0.0,WeatherDisplay:10.37,2013-05-20 04:06:00,
2013-05-19 22:10:00,61.5,31.3,30.00,NNE,22,3.5,3.5,32,0.00,BKN,,0.00,0.0,WeatherDisplay:10.37,2013-05-20 04:10:00,
2013-05-19 22:12:00,61.5,31.3,30.00,North,355,4.6,4.6,32,0.00,BKN,,0.00,0.0,WeatherDisplay:10.37,2013-05-20 04:12:00,
2013-05-19 22:13:00,61.4,31.3,30.00,WNW,288,6.0,6.0,32,0.00,BKN,,0.00,0.0,WeatherDisplay:10.37,2013-05-20 04:13:00,
2013-05-19 22:14:00,61.4,31.3,30.00,NNW,328,8.1,8.1,32,0.00,BKN,,0.00,0.0,WeatherDisplay:10.37,2013-05-20 04:14:00,
2013-05-19 22:15:00,61.4,31.3,30.00,NNW,333,5.8,5.8,32,0.00,BKN,,0.00,0.0,WeatherDisplay:10.37,2013-05-20 04:15:00,
2013-05-19 22:17:00,61.4,31.3,30.00,North,355,4.6,4.6,32,0.00,BKN,,0.00,0.0,WeatherDisplay:10.37,2013-05-20 04:17:00,
2013-05-19 22:20:00,61.4,31.3,30.00,NNW,335,5.8,5.8,32,0.00,BKN,,0.00,0.0,WeatherDisplay:10.37,2013-05-20 04:20:00,
2013-05-19 22:22:00,61.5,31.3,30.00,NNW,335,6.0,6.0,32,0.00,BKN,,0.00,0.0,WeatherDisplay:10.37,2013-05-20 04:22:00,
2013-05-19 22:23:00,61.6,30.6,30.00,NNW,327,10.4,10.4,31,0.00,BKN,,0.00,0.0,WeatherDisplay:10.37,2013-05-20 04:23:00,
2013-05-19 22:24:00,61.6,30.6,30.00,NW,315,11.5,11.5,31,0.00,BKN,,0.00,0.0,WeatherDisplay:10.37,2013-05-20 04:24:00,
2013-05-19 22:25:00,61.7,30.7,30.00,NNW,342,6.9,6.9,31,0.00,BKN,,0.00,0.0,WeatherDisplay:10.37,2013-05-20 04:25:00,
2013-05-19 22:27:00,61.7,30.7,30.00,NNW,335,5.8,5.9,31,0.00,BKN,,0.00,0.0,WeatherDisplay:10.37,2013-05-20 04:27:00,
2013-05-19 22:30:00,61.7,31.5,30.00,NNW,335,5.8,5.8,32,0.00,BKN,,0.00,0.0,WeatherDisplay:10.37,2013-05-20 04:30:00,
2013-05-19 22:32:00,61.7,30.7,30.00,NNW,342,9.2,9.2,31,0.00,BKN,,0.00,0.0,WeatherDisplay:10.37,2013-05-20 04:32:00,
2013-05-19 22:33:00,61.7,30.7,30.00,NNW,343,10.4,10.4,31,0.00,BKN,,0.00,0.0,WeatherDisplay:10.37,2013-05-20 04:33:00,
2013-05-19 22:37:00,61.7,30.7,30.00,North,0,5.8,5.8,31,0.00,BKN,,0.00,0.0,WeatherDisplay:10.37,2013-05-20 04:37:00,
2013-05-19 22:38:00,61.7,30.7,30.00,West,280,9.2,9.2,31,0.00,BKN,,0.00,0.0,WeatherDisplay:10.37,2013-05-20 04:38:00,
2013-05-19 22:39:00,61.7,30.7,30.00,NNW,336,9.2,9.2,31,0.00,BKN,,0.00,0.0,WeatherDisplay:10.37,2013-05-20 04:39:00,
2013-05-19 22:43:00,61.6,30.6,30.00,NW,317,8.1,8.1,31,0.00,BKN,,0.00,0.0,WeatherDisplay:10.37,2013-05-20 04:43:00,
2013-05-19 22:44:00,61.6,30.6,30.01,NNW,330,8.1,8.1,31,0.00,BKN,,0.00,0.0,WeatherDisplay:10.37,2013-05-20 04:44:00,
2013-05-19 22:45:00,61.6,30.6,30.01,NW,315,8.1,8.1,31,0.00,BKN,,0.00,0.0,WeatherDisplay:10.37,2013-05-20 04:45:00,
2013-05-19 22:49:00,61.5,31.3,30.01,NW,316,9.2,9.2,32,0.00,BKN,,0.00,0.0,WeatherDisplay:10.37,2013-05-20 04:49:00,
2013-05-19 22:51:00,61.4,31.3,30.01,NW,314,11.5,11.5,32,0.00,BKN,,0.00,0.0,WeatherDisplay:10.37,2013-05-20 04:51:00,
2013-05-19 22:52:00,61.4,31.3,30.01,NW,316,11.5,11.5,32,0.00,BKN,,0.00,0.0,WeatherDisplay:10.37,2013-05-20 04:52:00,
2013-05-19 22:56:00,61.4,31.3,30.01,NW,318,11.5,11.5,32,0.00,BKN,,0.00,0.0,WeatherDisplay:10.37,2013-05-20 04:56:00,
2013-05-19 22:57:00,61.4,31.3,30.01,NW,304,13.0,13.0,32,0.00,BKN,,0.00,0.0,WeatherDisplay:10.37,2013-05-20 04:57:00,
2013-05-19 22:58:00,61.4,31.3,30.01,NNW,335,13.8,13.8,32,0.00,BKN,,0.00,0.0,WeatherDisplay:10.37,2013-05-20 04:58:00,
2013-05-19 22:59:00,61.4,31.3,30.01,WNW,285,16.1,16.1,32,0.00,BKN,,0.00,0.0,WeatherDisplay:10.37,2013-05-20 04:59:00,
2013-05-19 23:00:00,61.4,31.3,30.01,NW,304,10.4,10.4,32,0.00,BKN,,0.00,0.0,WeatherDisplay:10.37,2013-05-20 05:00:00,
2013-05-19 23:02:00,61.4,32.0,30.01,NW,307,15.0,15.0,33,0.00,BKN,,0.00,0.0,WeatherDisplay:10.37,2013-05-20 05:02:00,
2013-05-19 23:06:00,61.2,33.3,30.01,WNW,294,21.9,21.9,35,0.00,BKN,,0.00,0.0,WeatherDisplay:10.37,2013-05-20 05:06:00,
2013-05-19 23:07:00,61.1,33.2,30.01,WNW,289,21.9,21.9,35,0.00,BKN,,0.00,0.0,WeatherDisplay:10.37,2013-05-20 05:07:00,
2013-05-19 23:08:00,61.1,33.2,30.01,WNW,301,19.6,19.6,35,0.00,BKN,,0.00,0.0,WeatherDisplay:10.37,2013-05-20 05:08:00,
2013-05-19 23:11:00,60.8,33.7,30.01,NW,318,13.8,13.8,36,0.00,BKN,,0.00,0.0,WeatherDisplay:10.37,2013-05-20 05:11:00,
2013-05-19 23:13:00,60.6,33.5,30.01,NW,321,6.9,6.9,36,0.00,BKN,,0.00,0.0,WeatherDisplay:10.37,2013-05-20 05:13:00,
2013-05-19 23:14:00,60.6,33.5,30.01,West,273,7.0,7.0,36,0.00,BKN,,0.00,0.0,WeatherDisplay:10.37,2013-05-20 05:14:00,
2013-05-19 23:17:00,60.5,33.4,30.01,WNW,293,11.5,11.5,36,0.00,BKN,,0.00,0.0,WeatherDisplay:10.37,2013-05-20 05:17:00,
2013-05-19 23:19:00,60.4,34.0,30.01,WNW,294,9.2,9.2,37,0.00,BKN,,0.00,0.0,WeatherDisplay:10.37,2013-05-20 05:19:00,
2013-05-19 23:20:00,60.4,34.0,30.01,NW,318,8.1,8.1,37,0.00,BKN,,0.00,0.0,WeatherDisplay:10.37,2013-05-20 05:20:00,
2013-05-19 23:22:00,60.3,33.9,30.01,NW,310,10.4,10.4,37,0.00,BKN,,0.00,0.0,WeatherDisplay:10.37,2013-05-20 05:22:00,
2013-05-19 23:24:00,60.3,33.9,30.01,WNW,293,11.5,11.5,37,0.00,BKN,,0.00,0.0,WeatherDisplay:10.37,2013-05-20 05:24:00,
2013-05-19 23:25:00,60.2,33.8,30.01,West,277,9.2,9.2,37,0.00,BKN,,0.00,0.0,WeatherDisplay:10.37,2013-05-20 05:25:00,
2013-05-19 23:26:00,60.2,33.8,30.01,NW,311,9.2,9.2,37,0.00,BKN,,0.00,0.0,WeatherDisplay:10.37,2013-05-20 05:26:00,
2013-05-19 23:27:00,60.2,33.8,30.01,NW,312,5.8,5.8,37,0.00,BKN,,0.00,0.0,WeatherDisplay:10.37,2013-05-20 05:27:00,
2013-05-19 23:29:00,60.2,33.8,30.01,WNW,285,11.5,11.5,37,0.00,BKN,,0.00,0.0,WeatherDisplay:10.37,2013-05-20 05:29:00,
2013-05-19 23:31:00,60.2,33.8,30.01,NW,306,6.0,6.0,37,0.00,BKN,,0.00,0.0,WeatherDisplay:10.37,2013-05-20 05:31:00,
2013-05-19 23:33:00,60.1,33.7,30.01,WNW,296,5.8,5.8,37,0.00,BKN,,0.00,0.0,WeatherDisplay:10.37,2013-05-20 05:33:00,
2013-05-19 23:34:00,60.0,33.6,30.01,NW,322,5.8,5.8,37,0.00,BKN,,0.00,0.0,WeatherDisplay:10.37,2013-05-20 05:34:00,
2013-05-19 23:38:00,60.0,33.6,30.01,West,281,3.5,3.5,37,0.00,BKN,,0.00,0.0,WeatherDisplay:10.37,2013-05-20 05:38:00,
2013-05-19 23:39:00,60.0,33.6,30.01,NNW,336,4.0,4.0,37,0.00,BKN,,0.00,0.0,WeatherDisplay:10.37,2013-05-20 05:39:00,
2013-05-19 23:41:00,59.9,33.5,30.01,NW,313,6.9,6.9,37,0.00,BKN,,0.00,0.0,WeatherDisplay:10.37,2013-05-20 05:41:00,
2013-05-19 23:42:00,59.9,33.5,30.01,NW,324,6.9,6.9,37,0.00,BKN,,0.00,0.0,WeatherDisplay:10.37,2013-05-20 05:42:00,
2013-05-19 23:44:00,59.8,33.5,30.01,NW,306,3.5,3.5,37,0.00,BKN,,0.00,0.0,WeatherDisplay:10.37,2013-05-20 05:44:00,
2013-05-19 23:45:00,59.8,33.5,30.01,NW,306,3.5,3.5,37,0.00,BKN,,0.00,0.0,WeatherDisplay:10.37,2013-05-20 05:45:00,
2013-05-19 23:50:00,59.8,34.1,30.01,NW,324,5.8,5.8,38,0.00,BKN,,0.00,0.0,WeatherDisplay:10.37,2013-05-20 05:50:00,
2013-05-19 23:51:00,59.8,34.1,30.01,NW,322,4.6,4.6,38,0.00,BKN,,0.00,0.0,WeatherDisplay:10.37,2013-05-20 05:51:00,
2013-05-19 23:52:00,59.8,34.1,30.01,NW,306,2.3,3.5,38,0.00,BKN,,0.00,0.0,WeatherDisplay:10.37,2013-05-20 05:52:00,
2013-05-19 23:53:00,59.8,34.1,30.01,NW,312,6.9,6.9,38,0.00,BKN,,0.00,0.0,WeatherDisplay:10.37,2013-05-20 05:53:00,
2013-05-19 23:54:00,59.8,34.1,30.01,North,350,5.0,5.0,38,0.00,BKN,,0.00,0.0,WeatherDisplay:10.37,2013-05-20 05:54:00,
2013-05-19 23:56:00,59.8,34.1,30.01,NW,323,4.6,4.6,38,0.00,BKN,,0.00,0.0,WeatherDisplay:10.37,2013-05-20 05:56:00,
2013-05-19 23:58:00,59.8,34.1,30.01,NW,308,5.8,5.8,38,0.00,BKN,,0.00,0.0,WeatherDisplay:10.37,2013-05-20 05:58:00,
2013-05-19 23:59:00,59.8,34.1,30.02,NW,323,4.6,4.6,38,0.00,BKN,,0.00,0.0,WeatherDisplay:10.37,2013-05-20 05:59:00,